Details of LTEs during March - 2018

1 2 3 4 5 6 7 8 9
Sl No Unit Tender No. Tender Date Last date & time of bid submission TE Opening date & time Tender Description EMD (in Rs.) Bid Type
1 AFK 20170817 26/03/2018 2018-04-17 14:00 2018-04-17 14:30 PUNCH AMMN INDEX NO. 6P & 7P MK-II   0.00 Single
2 OFA B7TE120970 26/03/2018 2018-04-27 14:30 2018-04-27 15:00 ,CONTROL TRANSFORMER 110V,230V,1KVA,CONTROL TRANSFORMER PRIMARY. etc.   0.00 Single
3 OFA B7TE120971 26/03/2018 2018-04-27 14:30 2018-04-27 15:00 ,HOOTER TYPE - EUN0,VOLTAGE 230V etc.   0.00 Single
4 OFA B7TE120972 26/03/2018 2018-04-27 14:30 2018-04-27 15:00 ,HRC FUSE BASE 630AMP,415V, DMC,HRC FUSE BASE 400A,415V,SIZE 02,DMC etc.   0.00 Single
5 OFA B7TE120973 26/03/2018 2018-04-27 14:30 2018-04-27 15:00 ,MCCB 4 POLE, 800 AMP, 50 KA etc.   0.00 Single
6 OFA B7TE120974 26/03/2018 2018-04-27 14:30 2018-04-27 15:00 ,SMPS POWER SUPPLY-24 VDC @ 15A,POWER SUPPLY MODULER etc.   0.00 Single
7 OFA B7TE120975 26/03/2018 2018-05-01 14:30 2018-05-01 15:00 ,MCCB-250 AMPS,3-POLE,440V AC. etc.   0.00 Single
8 OFA B7TE120976 26/03/2018 2018-05-01 14:30 2018-05-01 15:00 ,MCCB-100 AMPS,3 POLE,VOLTS-440,,MCCB 4 POLE, 400 AMP, 36 KA etc.   0.00 Single
9 OFA B7TE120977 26/03/2018 2018-05-01 14:30 2018-05-01 15:00 ,MOTOR PROTECTION CIRCUIT BREAKER etc.   0.00 Single
10 OFA B7TE120978 26/03/2018 2018-05-01 14:30 2018-05-01 15:00 ,AMMONIA GAS LEAKAGE DETECTOR, etc.   0.00 Single
11 OFA B7TE120979 26/03/2018 2018-05-01 14:30 2018-05-01 15:00 ,MCCB 4 POLE, 250 AMP, 36 KA etc.   0.00 Single
12 OFBH 20170338 26/03/2018 2018-04-06 14:30 2018-04-06 14:30 PROCESSING OF AMMN.CONT.BOXC43,   24000.00 Single
13 OFBA 170943 26/03/2018 2018-05-10 14:30 2018-05-10 14:30 FILE CASE ALMIRAH SIZE:78"X32"   0.00 Single
14 OFBA 170944 26/03/2018 2018-05-08 14:30 2018-05-08 14:30 EXE.TABLE SIZE:1500 X 750 MM   0.00 Single
15 OFBA 170945 26/03/2018 2018-05-10 14:30 2018-05-10 14:30 IMPELLER SPARES FOR KIRLOSKAR   0.00 Single
16 OFBA 170946 26/03/2018 2018-05-10 14:30 2018-05-10 14:30 SPARES FOR YAMADA PUMP   0.00 Single
17 OFBA 170947 26/03/2018 2018-05-10 14:30 2018-05-10 14:30 M.S.PIPE 50 MM N.B.ERW,IS1239   0.00 Single
18 AFK 20170814 24/03/2018 2018-04-03 14:00 2018-04-03 14:30 E.P.FOAM TYPE 2 DENS 15/20KG/M3   8713.00 Single
19 OFA B7TE120960 24/03/2018 2018-04-24 14:30 2018-04-24 15:00 ,PHOSPHOR BRONZE TUBE,60X100X200L. etc.   0.00 Single
20 OFA B7TE120961 24/03/2018 2018-04-24 14:30 2018-04-24 15:00 ,HORIZONTAL CENTRIFUGAL WATER PUMP,,HORIZONTAL CENTRIFUGAL PUMP (KIR) etc.   0.00 Single
21 OFA B7TE120962 24/03/2018 2018-04-24 14:30 2018-04-24 15:00 ,SRDG BALL BRG 50x90x20 SKF 6210,SRDG BALL BRG 1-1/2"x3-3/4"x15/16" etc.   0.00 Single
22 OFA B7TE120963 24/03/2018 2018-04-24 14:30 2018-04-24 15:00 ,JOINTING H.P.SIZE 60"x60"x1/8"THICK etc.   0.00 Single
23 OFA B7TE120964 24/03/2018 2018-04-24 14:30 2018-04-24 15:00 ,VOGEL OIL GEAR PUMP UNIT MF 5-2000 etc.   0.00 Single
24 OFA B7TE120965 24/03/2018 2018-04-24 14:30 2018-04-24 15:00 ,REDCTN.GEAR BOX WITH MTR,33KH-71M4. etc.   0.00 Single
25 OFA B7TE120966 24/03/2018 2018-04-24 14:30 2018-04-24 15:00 ,DEWATERING MONOBLOCK PUMP SETS. etc.   0.00 Single
26 OFA B7TE120967 24/03/2018 2018-04-24 14:30 2018-04-24 15:00 ,DIAPHRAGM FOR BRAKE UNIT. etc.   0.00 Single
27 OFA B7TE130968 24/03/2018 2018-04-24 14:30 2018-04-24 15:00 ,LADIES OVERCOAT EXTRA LARGE,LADIES OVERCOAT-MEDIUM GREY COLOUR,LADIES OVERCOAT-LARGE GREY COLOUR etc.   0.00 Single
28 OFK 17CST-1018 24/03/2018 2018-03-27 14:30 2018-03-27 13:00 JUTE GUNNY BAG SIZE 14"*34"   0.00 Single
29 SAF 3173001003 24/03/2018 2018-04-27 14:30 2018-04-27 15:00 BOBIN HEATER 3 KW 230V AC SING,   0.00 Single
30 SAF 3173001004 24/03/2018 2018-04-27 14:30 2018-04-27 15:00 RADIO SETS (WALKI-TALKI) RANGE,   0.00 Single
31 SAF 3173001005 24/03/2018 2018-04-17 14:30 2018-04-17 15:00 BRAZED CARBIDE FORM CUTTER THR,   0.00 Single
32 OFBH 20170336 24/03/2018 2018-04-13 14:30 2018-04-13 14:30 THRUST BEARING SKF.51107,THRUST BEARING SKF.51107,TAPER S/R ROLLER BEARING 30211,   0.00 Single
33 OFBH 20170337 24/03/2018 2018-04-13 14:30 2018-04-13 14:30 WHEEL VALVE 50 MM DIA, GM,G I PIPE 15 MM (1/2"),UNION G.I.1.1/2",SOLENOID VALVE WITH COIL 5/2 W,V BELT D-238,   0.00 Single
34 OFBA 170937 24/03/2018 2018-04-17 14:30 2018-04-17 14:30 WATER DISPENSER 20 LITRE CAPAC   0.00 Single
35 OFBA 170938 24/03/2018 2018-05-03 14:30 2018-05-03 14:30 ROTO INJECT OIL FOR ATLAS COMP   0.00 Single
36 OFBA 170939 24/03/2018 2018-05-08 14:30 2018-05-08 14:30 3 WAY SOLENOID VALVE SZ-1/4"   0.00 Single
37 OFBA 170940 24/03/2018 2018-05-03 14:30 2018-05-03 14:30 AMMONIA SOLUTION AR   0.00 Single
38 OFBA 170941 24/03/2018 2018-05-03 14:30 2018-05-03 14:30 LADDER PLATFORM TYPE AL 12FEET   0.00 Single
39 OFBA 170942 24/03/2018 2018-05-08 14:30 2018-05-08 14:30 MORRIS 2 TONNES BALANCE SPUR   0.00 Single
40 HVF 0202170150 24/03/2018 2018-04-09 12:00 2018-04-09 15:00 GASKET , etc.   0.00 Single
41 HVF 0202170151 24/03/2018 2018-04-09 12:00 2018-04-09 15:00 CUP ASSY , etc.   0.00 Single
42 HVF 0401171039 24/03/2018 2018-05-02 12:00 2018-05-02 15:00 ROLLER , etc.   0.00 Single
43 OFT G490H96869 24/03/2018 2018-04-12 14:30 2018-04-12 15:00 CARBIDE 'T' SLOT CUTTER DIA 32   0.00 Single
44 OFT G491H96870 24/03/2018 2018-04-12 14:30 2018-04-12 15:00 SOLID CARBIDE END MILL DIA 8.0   0.00 Single
45 OFT G559D96868 24/03/2018 2018-04-17 14:30 2018-04-17 15:00 Con Forg A3011 & A3012   0.00 Single
46 OFT G610Z96867 24/03/2018 2018-04-10 14:30 2018-04-10 15:00 ENGAGEMENT OF TAX CONSULTANT   0.00 Single
47 OFT G685E53613 24/03/2018 2018-04-26 14:30 2018-04-26 15:00 SPRING EXTRACTOR DRG. NO.SP-19   0.00 Single
48 OFCH 201700645 24/03/2018 2018-04-16 14:00 2018-04-16 14:30 BROWN PAPER FOR PRIMARY CARTG   9937.00 Single
49 HAPP 170344 24/03/2018 2018-04-10 14:00 2018-04-10 14:30 HOLDER FOR RGB-60   0.00 Single
50 HAPP 170345 24/03/2018 2018-04-12 14:00 2018-04-12 14:30 SUPPLY OF FORE MOTOR (RAW MATERIAL)   0.00 Single
51 HAPP 170346 24/03/2018 2018-04-17 14:00 2018-04-17 14:30 STEEL ROD,SPCN:BS-970(PT-1)-83 070 M20   0.00 Single
52 MSF 17TE210492 23/03/2018 2018-04-16 14:30 2018-04-16 14:30 METAL PRE-TREATMENT CHEMICAL FOR RE etc.   20435.00 Single
53 GSF 1700001160 23/03/2018 2018-04-24 00:00 2018-04-24 00:00 MILLING INSERT TO SPEC. R390-17-04-08MPM-1130, T/HOLDER S 06 10 H SWUBR-06-5 & INSERT WBMT 060102,   0.00 Single
54 HEF AD17180059 23/03/2018 2018-04-13 00:00 2018-04-13 00:00 -CARBON TETRA CHLORIDE PUR1001095005   0.00 Single
55 OFA B7TE210958 23/03/2018 2018-04-17 14:30 2018-04-17 15:00 ,DESIGN,DEVELOPMENT& MFG OF 7.62 T.B etc.   0.00 Single
56 OFK 17CST-1016 23/03/2018 2018-03-23 14:30 2018-03-23 13:00 LABOUR CONTRACT FOR H/KEEPING(A.O)   0.00 Single
57 OFK 17CST-1017 23/03/2018 2018-03-23 14:30 2018-03-23 13:00 MATERIAL & LABOUR FOR MAKING CABLE   0.00 Single
58 SAF 3173000996 23/03/2018 2018-04-13 14:30 2018-04-13 15:00 SLOTTING TOOL AS PER DRG.NO.TP,   0.00 Single
59 SAF 3173000997 23/03/2018 2018-04-17 14:30 2018-04-17 15:00 LED PLL RETROFITS LAMP 04 PIN,   0.00 Single
60 SAF 3173000998 23/03/2018 2018-04-17 14:30 2018-04-17 15:00 L.E.D. TUBE LIGHT RETROFITS PI,   0.00 Single
61 SAF 3173000999 23/03/2018 2018-04-13 14:30 2018-04-13 15:00 ACID HYDROCHLORIC AR OR GR SPE,   0.00 Single
62 SAF 3173001000 23/03/2018 2018-04-17 14:30 2018-04-17 15:00 2 CORE 2.5 SQ.MM TWIN FLAT ALU,   0.00 Single
63 SAF 3173001001 23/03/2018 2018-04-03 14:30 2018-04-03 15:00 GUARD HAND RIGHT&LEFT(MOD.)DRG,   27340.00 Single
64 SAF 3173001002 23/03/2018 2018-04-17 14:30 2018-04-17 15:00 L.E.D. TUBE LIGHT RETROFITS PI,   0.00 Single
65 OFBA 170927 23/03/2018 2018-04-24 14:30 2018-04-24 14:30 PAPER FILTER WHATMAN NO.41   0.00 Single
66 OFBA 170928 23/03/2018 2018-04-26 14:30 2018-04-26 14:30 EMPTY GAS CYLINDER FOR R 407C   0.00 Single
67 OFBA 170929 23/03/2018 2018-05-03 14:30 2018-05-03 14:30 FLANGE PIPE MS HEAVY DUTY 50MM   0.00 Single
68 OFBA 170930 23/03/2018 2018-05-03 14:30 2018-05-03 14:30 VALVE GLOBE GM. 3/4"   0.00 Single
69 OFBA 170931 23/03/2018 2018-04-24 14:30 2018-04-24 14:30 SPARES FOR ATLAS COPCO AIR COM   0.00 Single
70 OFBA 170932 23/03/2018 2018-05-08 14:30 2018-05-08 14:30 FILTER DRIER CORE(48-DM)   0.00 Single
71 OFBA 170933 23/03/2018 2018-05-08 14:30 2018-05-08 14:30 SYNTHTIC OIL NYCOLUBE 7030   0.00 Single
72 OFBA 170934 23/03/2018 2018-05-08 14:30 2018-05-08 14:30 EXPANSION VALVE,TRAE45M   0.00 Single
73 OFBA 170935 23/03/2018 2018-05-08 14:30 2018-05-08 14:30 MECH.SEAL FOR ACID MIXING PUMP   0.00 Single
74 OFBA 170936 23/03/2018 2018-05-08 14:30 2018-05-08 14:30 MECH.SEAL FOR WEAK ACID PUMP   0.00 Single
75 HVF 0401171034 23/03/2018 2018-05-02 12:00 2018-05-02 15:00 CARRIER ASSY , etc.   0.00 Single
76 HVF 0401171035 23/03/2018 2018-05-02 12:00 2018-05-02 15:00 CARRIER ASSY , etc.   0.00 Single
77 HVF 0405171036 23/03/2018 2018-04-15 12:00 2018-04-15 15:00 PIPE , etc.   0.00 Single
78 HVF 0405171037 23/03/2018 2018-04-19 12:00 2018-04-19 15:00 PIPE , etc.   0.00 Single
79 HVF 0405171038 23/03/2018 2018-04-19 12:00 2018-04-19 15:00 CLIP ASSY , etc.   0.00 Single
80 OFAJ IS2170503 23/03/2018 2018-04-13 14:00 2018-04-13 15:00 PAINT AL.SPECN.IS:2339-1963, PAINT POST OFFICE RED, PAINT SYNTHETIC ENAMEL OF SHADE, PAINT SYNTHETIC ENAMEL,WHITE(RM), SYNTHETIC ENAMEL PAINT WHITE   0.00 Single
81 OFAJ IS2170504 23/03/2018 2018-03-23 14:00 2018-03-23 15:00 LPG GAS CYLINDER OF 19 KG   0.00 Single
82 OFAJ TS2170294 23/03/2018 2018-04-13 14:00 2018-04-13 15:00 DRILL P/S 2.40 MM RH, DRILL P/S NO.70 (SIZE:0.71 MM DIA), ER COLLET DIN 6499, ER25,RANGE2-1MM, ER COLLET DIN 6499,ER25,RANGE:4-3MM, GRIND. WHEEL PLAIN TYPE-1 200X13X32, H.S.S.CENTRE DRILL 3.15X8MM, H   0.00 Single
83 OFT G685E53611 23/03/2018 2018-04-17 14:30 2018-04-17 15:00 BAND FORE SIGHT SP-2   0.00 Single
84 OFT G685E53612 23/03/2018 2018-04-17 14:30 2018-04-17 15:00 PLATE BUTT TO DRG. NO.SP-49   0.00 Single
85 OFCH 201700643 23/03/2018 2018-04-02 14:00 2018-04-02 14:30 SHAPED CHARGE 145 MM (EMPTY)   201610.00 Single
86 OFCH 201700644 23/03/2018 2018-04-19 14:00 2018-04-19 14:30 CASING ASSLY FOR MODULAR CHARG   0.00 Single
87 HAPP 170342 23/03/2018 2018-04-12 14:00 2018-04-12 14:30 ACETONE LR GRADE   0.00 Single
88 HAPP 170343 23/03/2018 2018-04-12 14:00 2018-04-12 14:30 BORING BAR S32U PCLNL 12   0.00 Single
89 OFDR 2017000679 23/03/2018 2018-04-13 14:30 2018-04-13 15:00 1. GUN POWDER G-12 TO SPECN.NO JSS:   0.00 Single
90 OFDR 2017000680 23/03/2018 2018-04-23 14:30 2018-04-23 15:00 1. X RAY BAGGAGE SCANNER   2.00 Single
91 OFDR 2017000681 23/03/2018 2018-04-23 14:30 2018-04-23 15:00 1. WATER TANKER TRAILER   2.00 Single
92 OFDR 2017000682 23/03/2018 2018-04-23 14:30 2018-04-23 15:00 1. ELECTRICAL DRYER   2.00 Single
93 OFDR 2017000683 23/03/2018 2018-04-23 14:30 2018-04-23 15:00 1. WATER CIRCULATE DRYER   2.00 Single
94 OFDR 2017000686 23/03/2018 2018-04-23 14:30 2018-04-23 15:00 1. CONE BLENDER   2.00 Single
95 AFK 20170809 22/03/2018 2018-04-13 14:00 2018-04-13 14:30 CLEANING AND OVERHAULING OF DOME   8100.00 Single
96 AFK 20170810 22/03/2018 2018-04-03 14:00 2018-04-03 14:30 CHAMBER FOR DET.NO.36M GRENADE 4   12890.00 Single
97 AFK 20170811 22/03/2018 2018-04-03 14:00 2018-04-03 14:30 BRASS STRIP 35.6MM WIDE X 0.58MM TH   7422.00 Single
98 GSF 1700001159 22/03/2018 2018-04-20 00:00 2018-04-20 00:00 INDEXABLE E/MILL CUTTER DIA 25 MM WITH 50NO. INSER, COLLET ISO NO:ER 25 BORE RANGE 1MM.TO 16MM.AT A ST, COLLET ISO NO:ER 32 BORE RANGE 6MM.TO 20MM.AT A ST, COLLET ISO NO:ER 16 BORE RANGE(1MM.TO 10MM)   0.00 Single
99 HEF TE17180334 22/03/2018 2018-04-12 00:00 2018-04-12 00:00 -BOX CARTRIDGE PEK-1 A/L (6573221850   12300.00 Single
100 SAF 3173000989 22/03/2018 2018-04-13 14:30 2018-04-13 15:00 SOLID CARBIDE END MILL DIA 6.0,   0.00 Single
101 SAF 3173000990 22/03/2018 2018-04-13 14:30 2018-04-13 15:00 SOLID CARBIDE END MILL DIA 12M,   0.00 Single
102 SAF 3173000991 22/03/2018 2018-04-13 14:30 2018-04-13 15:00 INDEXABLE E/M CUTTER DIA 40 IS,   0.00 Single
103 SAF 3173000992 22/03/2018 2018-04-13 14:30 2018-04-13 15:00 SOLID CARBIDE BALL NOSE CUTTER,   0.00 Single
104 OFBH 20170334 22/03/2018 2018-04-06 14:30 2018-04-06 14:30 COPPER COATED WELD.WIRE 1/16"D,   0.00 Single
105 OFBH 20170335 22/03/2018 2018-04-13 14:30 2018-04-13 14:30 DETERGENT/WASHING SOAP/BAR,SOAP TOILET 75 GRM. WEIGHT,   0.00 Single
106 OFBA 170917 22/03/2018 2018-04-26 14:30 2018-04-26 14:30 GI SOCKET-3"   0.00 Single
107 OFBA 170918 22/03/2018 2018-04-26 14:30 2018-04-26 14:30 SODIUM NITRATE   0.00 Single
108 OFBA 170919 22/03/2018 2018-04-26 14:30 2018-04-26 14:30 BALL BEARING DOUBLE SKF 3210   0.00 Single
109 OFBA 170920 22/03/2018 2018-04-26 14:30 2018-04-26 14:30 BALL VALVE FOR 99% SNA 116PCD   0.00 Single
110 OFBA 170921 22/03/2018 2018-04-19 14:30 2018-04-19 14:30 HT TRANSFORMER   14200.00 Single
111 OFBA 170922 22/03/2018 2018-05-03 14:30 2018-05-03 14:30 ROTO INJECT OIL FOR ATLAS COMP   0.00 Single
112 OFBA 170923 22/03/2018 2018-04-26 14:30 2018-04-26 14:30 SIDE TOOL CARBIDE TIPPED 150MM   0.00 Single
113 OFBA 170924 22/03/2018 2018-05-03 14:30 2018-05-03 14:30 QUICK STEEL FSL EPOXY PUTTY.   0.00 Single
114 OFBA 170925 22/03/2018 2018-05-03 14:30 2018-05-03 14:30 PTFE LINED 90 DEG.BEND 40NB   0.00 Single
115 OFBA 170926 22/03/2018 2018-04-26 14:30 2018-04-26 14:30 EMPTY CYLINDER FOR R-23   0.00 Single
116 HVF 0204170148 22/03/2018 2018-04-05 12:00 2018-04-05 15:00 SPRING , etc.   0.00 Single
117 HVF 0204170149 22/03/2018 2018-04-05 12:00 2018-04-05 15:00 SPRING , etc.   0.00 Single
118 HVF 0404171031 22/03/2018 2018-04-18 12:00 2018-04-18 15:00 RUBBER SHEATH , etc.   0.00 Single
119 HVF 0404171032 22/03/2018 2018-04-11 12:00 2018-04-11 15:00 COVER ASSY , etc.   0.00 Single
120 HVF 0404171033 22/03/2018 2018-04-11 12:00 2018-04-11 15:00 GASKET , etc.   0.00 Single
121 OFAJ FS2170135 22/03/2018 2018-04-13 14:00 2018-04-13 15:00 AL.ROD SIZE 10MM DIA TO 6.5MM DIA   0.00 Single
122 OFAJ FS2170136 22/03/2018 2018-04-24 14:00 2018-04-24 15:00 CORR.FIBREBOARD P/CORTON FS-2376 E.   0.00 Single
123 OFAJ FS2170137 22/03/2018 2018-04-24 14:00 2018-04-24 15:00 STEEL BALL 3.5-200 TO CQA(A)/AMN/   0.00 Single
124 OFAJ IS2170500 22/03/2018 2018-04-21 14:00 2018-04-21 15:00 NOSING LUBRICANT (GRAPHITE OIL)   0.00 Single
125 OFAJ IS2170501 22/03/2018 2018-04-02 14:00 2018-04-02 15:00 COMPLETE CLEANING AND SPRAY PAINTIN   0.00 Single
126 OFAJ IS2170502 22/03/2018 2018-04-13 14:00 2018-04-13 15:00 EMERY CLOTH TOUGH RESIN BOND G 120, EMERY CLOTH TOUGH RESIN BOND G.60, EMERY CLOTH, TOUGH RESIN BOND G.80, EMERY PAPER C COATING EC GRIT 180, FILE HANDLE WOODEN FOR 10"LONG FILE   0.00 Single
127 OFAJ RS2170473 22/03/2018 2018-04-12 14:00 2018-04-12 15:00 BOTTOM SHAFT ASSY, BRAKE SHOE WITH LINER-LEADING, BRAKE SHOE WITH LINER-TRAILING, EXTERNAL CIRCLIP, HOSE BRAKE (FLEXIBLE), MAIN SHAFT, MAIN SHAFT BRACKET WELD.(BOTTOM), MAIN SHAFT BRACKET WELD.(TOP),,   0.00 Single
128 OFT G220H96863 22/03/2018 2018-04-17 14:30 2018-04-17 15:00 AIR TOOLGRINDER FORBES FA38   0.00 Single
129 OFT G330H96862 22/03/2018 2018-04-17 14:30 2018-04-17 15:00 HIGH PRECISION HEAVY DUTY   0.00 Single
130 OFT G330H96865 22/03/2018 2018-04-17 14:30 2018-04-17 15:00 External Left Hand 3.0/3.1 MM   0.00 Single
131 OFT G490H96860 22/03/2018 2018-04-17 14:30 2018-04-17 15:00 BC 'T'-SLOT CUTTER DIA 25 MM   0.00 Single
132 OFT G490H96861 22/03/2018 2018-04-17 14:30 2018-04-17 15:00 SOLID CARBIDE DRILL DIA 3.3   0.00 Single
133 OFT G490H96864 22/03/2018 2018-04-17 14:30 2018-04-17 15:00 SOLID MG END MILL SHANK 20 MM   0.00 Single
134 OFT G490H96866 22/03/2018 2018-04-17 14:30 2018-04-17 15:00 HSS M42 ROUGHING END MILL 16   0.00 Single
135 OFT G559B96857 22/03/2018 2018-04-17 14:30 2018-04-17 15:00 IC A1216 DT. HANDLE BASE BARRE   0.00 Single
136 OFT G559D96856 22/03/2018 2018-04-17 14:30 2018-04-17 15:00 Con Forg A6026 Pawl Feed Belt   0.00 Single
137 OFT G559D96858 22/03/2018 2018-04-17 14:30 2018-04-17 15:00 Con Forg A2519 Rocking Bar   0.00 Single
138 OFT G559D96859 22/03/2018 2018-04-17 14:30 2018-04-17 15:00 Con Forg A6030 Link Lever Feed   0.00 Single
139 OFT G685E53609 22/03/2018 2018-04-24 14:30 2018-04-24 15:00 STOCK BUTT SP-38*   0.00 Single
140 OFT G685E53610 22/03/2018 2018-04-24 14:30 2018-04-24 15:00 STOCK BUTT SP-38*   0.00 Single
141 HAPP 170340 22/03/2018 2018-04-12 14:00 2018-04-12 14:30 TIG WELDING TORCH SPARES-COLLET 2.4MM   0.00 Single
142 HAPP 170341 22/03/2018 2018-04-19 14:00 2018-04-19 14:30 CORRUGATED CARTON BOX FOR 120MM FSAPDS   0.00 Single
143 MSF 17TE210490 21/03/2018 2018-04-13 14:30 2018-04-13 14:30 PUNCH FOR CUPPING DRG NO - T-5446 etc.   12380.00 Single
144 GSF 1700001158 21/03/2018 2018-04-12 00:00 2018-04-12 00:00 WASHER(PVC) TO DRG NO NAI(J) 501/3 IN F/C,   0.00 Single
145 HEF AD17180058 21/03/2018 2018-04-12 00:00 2018-04-12 00:00 -GI CONTAINER FOR COMBUSTI8121100002   11965.20 Single
146 OFA B7TE110953 21/03/2018 2018-04-11 14:30 2018-04-11 15:00 ,FINAL TAPER CARBIDE DIE FOR 30MM CC etc.   0.00 Single
147 OFA B7TE110955 21/03/2018 2018-04-11 14:30 2018-04-11 15:00 ,CARBIDE CUPPING DIE FOR 84 MMCG CC etc.   0.00 Single
148 OFA B7TE110956 21/03/2018 2018-04-11 14:30 2018-04-11 15:00 ,HIGH DENSITY POLY PROPELENE TANK etc.   0.00 Single
149 OFA B7TE110957 21/03/2018 2018-04-11 14:30 2018-04-11 15:00 ,CARRBIDE DIE FOR 30MM SARATH etc.   0.00 Single
150 OFA B7TE120954 21/03/2018 2018-04-03 14:30 2018-04-03 15:00 ,PURCHASE OF CARPENTRY WORK MATERIAL etc.   0.00 Single
151 SAF 3173000982 21/03/2018 2018-04-24 14:30 2018-04-24 15:00 LED STREET LIGHT LMINARIES COM,L.E.D. FLOOD LIGHT COMPRIESE O,   0.00 Single
152 SAF 3173000983 21/03/2018 2018-04-24 14:30 2018-04-24 15:00 AIR BREAK POWER CONTACTOR 3POL,AIR BREAK POWER CONTACTOR 3POL,   0.00 Single
153 SAF 3173000984 21/03/2018 2018-04-03 14:30 2018-04-03 15:00 S/C REAMER DIA7.976MM COATED T,   0.00 Single
154 SAF 3173000985 21/03/2018 2018-04-13 14:30 2018-04-13 15:00 END MILL BALL NOSE SOLID CARBI,   0.00 Single
155 SAF 3173000986 21/03/2018 2018-03-30 14:30 2018-03-30 15:00 SECONDRY REFIND AOD/VOD QUALIT,   0.00 Single
156 SAF 3173000988 21/03/2018 2018-04-13 14:30 2018-04-13 15:00 SOLID CARBIDE ANGLULAR CUTTER,SOLID CARBIDE ANGULAR CUTTER A,   0.00 Single
157 OFBA 170911 21/03/2018 2018-04-24 14:30 2018-04-24 14:30 FEEDER PLATE FOR BMCS PROP   0.00 Single
158 OFBA 170912 21/03/2018 2018-04-24 14:30 2018-04-24 14:30 BERGMANN JUNK TEST TUBE   0.00 Single
159 OFBA 170913 21/03/2018 2018-04-24 14:30 2018-04-24 14:30 ALUMINIUM SHEET 99.5% 1.6 MM T   0.00 Single
160 OFBA 170914 21/03/2018 2018-04-17 14:30 2018-04-17 14:30 MECH.SEAL FOR FIBRE CON.PUMP   6700.00 Single
161 OFBA 170915 21/03/2018 2018-04-24 14:30 2018-04-24 14:30 EMPTY GAS CYLINDER 47LTRS   0.00 Single
162 OFBA 170916 21/03/2018 2018-04-26 14:30 2018-04-26 14:30 CHAIN PULLEY BLOCK,1 T,LIFT 12   0.00 Single
163 OCFC 2017LTE265 21/03/2018 2018-03-21 00:00 2018-03-21 00:00 ,WIRE BPVLE 95MM, TY 16-505-911-76 ,HESSIAN CLOTH 40 INCHES ,TAR TARANG QUARTERLY NEWS PAPER 170 GSM GLOSSY PAP,ELECTRICAL INSULATING FIREMAN'S BOOT   0.00 Single
164 OFV 20170499 21/03/2018 2018-04-20 14:30 2018-04-20 15:00 BALL BEARING NO B7000 CA,   0.00 Single
165 OFAJ FS2170134 21/03/2018 2018-04-13 14:00 2018-04-13 15:00 CONV.OF STEEL ROD 7MM TO 6.5MM DIA   0.00 Single
166 OFAJ IS2170499 21/03/2018 2018-04-11 14:00 2018-04-11 15:00 DENATURED SPIRIT, PAINT SYNTHETIC ENAMEL OF SHADE, PAINT SYNTHETIC ENAMEL OF SHADE SKY   0.00 Single
167 OFAJ NS2170125 21/03/2018 2018-04-10 14:00 2018-04-10 15:00 DE DROSSING SPADE   0.00 Single
168 OFAJ RS2170470 21/03/2018 2018-04-17 14:00 2018-04-17 15:00 MANUFACTURING & SUPPLY OF SHIFTER G   0.00 Single
169 OFAJ RS2170472 21/03/2018 2018-04-17 14:00 2018-04-17 15:00 R G PASTE GREASE   0.00 Single
170 OFT G490H96850 21/03/2018 2018-04-12 14:30 2018-04-12 15:00 SOLID CARB.E.M. DIA 20 x SHANK   0.00 Single
171 OFT G559D96853 21/03/2018 2018-04-12 14:30 2018-04-12 15:00 Con Forg A2206 Block Trunnion   0.00 Single
172 OFT G559D96854 21/03/2018 2018-04-12 14:30 2018-04-12 15:00 Con Forg A2209 Plate Back   0.00 Single
173 OFT G559D96855 21/03/2018 2018-04-12 14:30 2018-04-12 15:00 Forg A3017 Pin locking Pin fir   0.00 Single
174 OFT G560L96851 21/03/2018 2018-04-12 14:30 2018-04-12 15:00 CLAMP MEATER   0.00 Single
175 OFT G560L96852 21/03/2018 2018-04-12 14:30 2018-04-12 15:00 INSULATION TESTER   0.00 Single
176 OLF 1706011808 21/03/2018 2018-04-27 15:00 2018-04-27 15:00 BOBBIN,BODY,COVER,PIN,BODY,BOARD ASSY.,EYE SHEILD/CAP FILTER OPENING,BLOCK,PLASTIC MOULD.,PLATE,PLASTIC MOULD.,COVER,BODY,FRAME   60584.00 Single
177 OLF 1706011809 21/03/2018 2018-04-30 15:00 2018-04-30 15:00 BLOCK,OIL SEAL (*),GASKET (2),GLAND,BUSH,SLEEVE,RING,BLOCK,WASHER,PIN,BODY,CAP,OIL SEAL,WASHER,BOARD,RING,WASHER,RING,GASKET,LAMP HOLDER ASSY./CHUCK,THREE TERMINALS BLOCK,COVER,PLASTIC MOULD,CAP,PLAS   16618.00 Single
178 OFDR 2017000678 21/03/2018 2018-04-24 14:30 2018-04-24 15:00 1. FERRULE (AL) FOR 81MM MK-II   0.00 Single
179 GSF 1700001155 20/03/2018 2018-04-12 00:00 2018-04-12 00:00 PLUG REAR TO DRG NO-ITV-52 IN F/C.,   0.00 Single
180 GSF 1700001156 20/03/2018 2018-04-11 00:00 2018-04-11 00:00 BIPOD ASSY(GUN MOUNT) COMPLETE PT NO.F-1303-028700,   148933.00 Single
181 OFA B7TE110948 20/03/2018 2018-04-20 14:30 2018-04-20 15:00 ,INSERTS CNMG 120408.GRADE 435(MAKE: etc.   0.00 Single
182 OFA B7TE110949 20/03/2018 2018-04-10 14:30 2018-04-10 15:00 ,CARRBIDE DIE FOR 30MM SARATH etc.   0.00 Single
183 OFA B7TE110950 20/03/2018 2018-04-10 14:30 2018-04-10 15:00 ,[CARRBIDE DIE FOR 30MM SARATH etc.   0.00 Single
184 OFA B7TE120951 20/03/2018 2018-04-20 14:30 2018-04-20 15:00 ,MS RD 44 (1-3/4") DIA AS PER IS:15-,COPPER ROD 1-1/2"DIA, FIRE REFINED etc.   0.00 Single
185 OFA B7TE120952 20/03/2018 2018-04-13 14:30 2018-04-13 15:00 ,PURCHASE OF CARPENTRY WORK MATERIAL etc.   0.00 Single
186 SAF 3173000979 20/03/2018 2018-04-13 14:30 2018-04-13 15:00 A06B-6080-H304 ALPHA -SVM-20/2,   0.00 Single
187 SAF 3173000980 20/03/2018 2018-04-13 14:30 2018-04-13 15:00 TEACH PENDANT FOR RJ3,A05B-230,   0.00 Single
188 SAF 3173000981 20/03/2018 2018-03-27 14:30 2018-03-27 15:00 BRACKET SIGHT UNIT NO.1 MK-1 T,   14732.00 Single
189 OCFC 2017LTE264 20/03/2018 2018-04-12 00:00 2018-04-12 00:00 ,WIRE BPVLE 95MM, TY 16-505-911-76 ,HESSIAN CLOTH 40 INCHES ,TAR TARANG QUARTERLY NEWS PAPER 170 GSM GLOSSY PAP,ELECTRICAL INSULATING FIREMAN'S BOOT   0.00 Single
190 HVF 0404171027 20/03/2018 2018-04-11 12:00 2018-04-11 15:00 GREEN LIGHT MFC-1 , etc.   0.00 Single
191 HVF 0405171028 20/03/2018 2018-04-18 12:00 2018-04-18 15:00 PIPE TO ENGINE , etc.   0.00 Single
192 HVF 0405171029 20/03/2018 2018-04-18 12:00 2018-04-18 15:00 BEARING 160707 , etc.   0.00 Single
193 HVF 0408171030 20/03/2018 2018-04-11 12:00 2018-04-11 15:00 ENGINE SHUT DOWN MECHANISM , etc.   0.00 Single
194 OFAJ FS2170133 20/03/2018 2018-04-12 14:00 2018-04-12 15:00 AL.ROD SIZE:14 MM DIA TO 11.5MM DIA   0.00 Single
195 OFAJ IS2170497 20/03/2018 2018-03-20 14:00 2018-03-20 15:00 MILK (TONED) 1/2 LTR PACKETS   0.00 Single
196 OFAJ IS2170498 20/03/2018 2018-04-11 14:00 2018-04-11 15:00 TRANSPORT BASKET TO DRG NO.SM-113C   0.00 Single
197 OFAJ TS2170291 20/03/2018 2018-04-07 14:00 2018-04-07 15:00 COMPONENT SUPPORT TOOL ASSEMBLY   0.00 Single
198 OFAJ TS2170292 20/03/2018 2018-04-11 14:00 2018-04-11 15:00 SEALING ADAPTORS FOR ANODISING 84MM   0.00 Single
199 OFT G225A53607 20/03/2018 2018-04-12 14:30 2018-04-12 15:00 STEEL ROUND 14 MM DIA BS 970 P   0.00 Single
200 OFT G685R53608 20/03/2018 2018-04-12 14:30 2018-04-12 15:00 USER HAND BOOK FOR 0.315 SP   0.00 Single
201 OFCH 201700637 20/03/2018 2018-04-23 14:00 2018-04-23 14:30 NG BARRIER FOR 120MM FSAPDS AM   94450.00 Single
202 OFCH 201700638 20/03/2018 2018-04-23 14:00 2018-04-23 14:30 PERFORATD ADD.LINER W/DISC120F   34726.00 Single
203 OFCH 201700639 20/03/2018 2018-04-12 14:00 2018-04-12 14:30 PURCHASE OF BILINGUAL PAYSLIP   0.00 Single
204 HAPP 170337 20/03/2018 2018-04-10 14:00 2018-04-10 14:30 VERTICAL SUBMERSIBLE OIL PUMP   0.00 Single
205 HAPP 170338 20/03/2018 2018-04-10 14:00 2018-04-10 14:30 MINERAL OIL,35% LANOLINE,65%WHITE SPIRIT   0.00 Single
206 HAPP 170339 20/03/2018 2018-04-10 14:00 2018-04-10 14:30 TOOL HOLDER PDJNL 2525 M15   0.00 Single
207 OLF 1706011804 20/03/2018 2018-04-20 15:00 2018-04-20 15:00 DIE/TOOLING DC/204,PRESSURE DIE CASTING BODY   349536.00 Single
208 OLF 1706011805 20/03/2018 2018-04-20 15:00 2018-04-20 15:00 PRESSURE DIE CASTING BODY,DIE/TOOLING FOR BODY DC/250 M5,DIE CASTING COVER,DIE/TOOLING FOR DC/281   245935.00 Single
209 OLF 1706011806 20/03/2018 2018-04-23 15:00 2018-04-23 15:00 PRESSURE DIE CASTING AXLE,DIE/TOOLING FOR AXLE DC/226,DIE CASTING FLANGE,DIE/TOOLING DC/260   68838.00 Single
210 OLF 1706011807 20/03/2018 2018-04-23 15:00 2018-04-23 15:00 PRESSURE DIE CASTING COVER,DIE/TOOLING FOR COVER DC/283M2,PRESSURE DIE CASTING BOARD,DIE/TOOLING FOR BOARD DC/251M3   218945.00 Single
211 OFBOL 17180251 20/03/2018 2018-04-06 14:30 2018-04-06 14:30 INTERNAL FITMENTS FOR BOX M-41A TO   76741.00 Single
212 OFDR 2017000676 20/03/2018 2018-03-20 14:30 2018-03-20 15:00 1. FILE DESK. 2. SOFT BOARD. 3. WOODEN CUPBOARD.   0.00 Single
213 AFK 20170805 19/03/2018 2018-04-13 14:00 2018-04-13 14:30 FLAME PROOF ELECTRONIC WEIGHING BAL   0.00 Single
214 AFK 20170806 19/03/2018 2018-03-30 14:00 2018-03-30 14:30 SEPARATORS FOR CARTON 23 A.   27237.00 Single
215 AFK 20170807 19/03/2018 2018-04-13 14:00 2018-04-13 14:30 CONVENTIONAL COOLANT PUMP FOR M/C T   0.00 Single
216 AFK 20170808 19/03/2018 2018-04-13 14:00 2018-04-13 14:30 ELECTRICAL SAFETY SHOES   8560.00 Single
217 MSF 17TE210486 19/03/2018 2018-04-10 14:30 2018-04-10 14:30 REFRAC.BRICKS&ACCESSO;CURT.WALL;B.T etc.   13320.00 Single
218 GSF 1700001153 19/03/2018 2018-04-05 00:00 2018-04-05 00:00 TALLY 6605/6610 RIBBON CARTRIDGE.,   0.00 Single
219 GSF 1700001154 19/03/2018 2018-04-10 00:00 2018-04-10 00:00 ANNUAL MAINTENANCE CONTRACT FOR PC,PRINTER ETC AS,   97100.00 Single
220 HEF TE17180332 19/03/2018 2018-04-12 00:00 2018-04-12 00:00 -HOSE FLEXIBLE P.V.C. - 259910932696   0.00 Single
221 OFA B7TE120940 19/03/2018 2018-04-20 14:30 2018-04-20 15:00 ,K-TYPE SPEED VARIATOR MODEL-K-2.5 etc.   0.00 Single
222 OFA B7TE120944 19/03/2018 2018-04-09 14:30 2018-04-09 15:00 ,SERVO AMPLIFIER FOR CNC M/C IN MCC etc.   0.00 Single
223 OFA B7TE120947 19/03/2018 2018-04-20 14:30 2018-04-20 15:00 ,CHECK VALVE SUBPLATE MOUNTED TYPE,-,SOLENOID CONTROLLED PILOT OPE.VALVE,SINGLE SOLENOID OPERATED VALVE,DG4V etc.   0.00 Single
224 OFA B7TE210945 19/03/2018 2018-04-17 14:30 2018-04-17 15:00 ,CUTG & CUPPING DIE BC9MM/T/2957/C etc.   0.00 Single
225 OFA B7TE210946 19/03/2018 2018-04-17 14:30 2018-04-17 15:00 ,DESIGN,DEVELOPMENT& MFG OF 7.62 T.B etc.   0.00 Single
226 OFA B7TE220942 19/03/2018 2018-04-27 14:30 2018-04-27 15:00 ,RECTIFIER UNIT 12 V, 1500 AMP etc.   0.00 Single
227 OFA B7TE220943 19/03/2018 2018-04-27 14:30 2018-04-27 15:00 ,STEP DOWN TRANSFORMER 250 KVA etc.   0.00 Single
228 OFA B7TE320941 19/03/2018 2018-04-09 14:30 2018-04-09 15:00 ,SERVO AMPLIFIER FOR CNC M/C IN MCC etc.   0.00 Single
229 OFK 17CST-1006 19/03/2018 2018-04-20 14:30 2018-04-20 13:00 NEOPRENE"O"RING 88/68 PT NO 10-D,NEOPRENE "O"RING 104/84 PAT NO 10-G,SPLIT PIN ( PT.NO. E-10),CYLINDER LINER, PART NO. 19A,NEOPRENE "O"RING PRP 902-17,PT.25 O,NEOPRENE "O"RING PRP 902-21,PT.K-14 etc.   0.00 Single
230 OFK 17CST-1007 19/03/2018 2018-04-27 14:30 2018-04-27 13:00 5H 46 AL. PISTON PT.NO.AC0006120004,OIL RING(C0535P)82.55 DIE 5H,COMP RING(PR046) 82.55DIA 5H46,PAIR OF CONNECTING ROD BRG.FOR 5H40 etc.   0.00 Single
231 OFK 17CST-1008 19/03/2018 2018-04-27 14:30 2018-04-27 13:00 GRIDN.WHEEL200X25X31.75MM(37C60MVK)   0.00 Single
232 OFK 17CST-1009 19/03/2018 2018-04-27 14:30 2018-04-27 13:00 CENTER DRILL 1.19*3.175MM(3/64*1/8",CENTER DRILL 1/16" X3/16" TYPE 'A' etc.   0.00 Single
233 OFK 17CST-1010 19/03/2018 2018-03-23 14:30 2018-03-23 13:00 GUN POWDER SULPHUR FREE MEALED   0.00 Single
234 OFK 17CST-1011 19/03/2018 2018-03-20 14:30 2018-03-20 13:00 REWIRING OF SHOP FLOOR LIGHTING   0.00 Single
235 SAF 3173000976 19/03/2018 2018-04-10 14:30 2018-04-10 15:00 SUBMERSIBLE PUMP MODEL SX8 OR,   0.00 Single
236 SAF 3173000978 19/03/2018 2018-04-10 14:30 2018-04-10 15:00 CONTROL CARD IP 6SN 1118-0DM33,   0.00 Single
237 HVF 0401171026 19/03/2018 2018-04-18 12:00 2018-04-18 15:00 SCREW , etc.   0.00 Single
238 OFAJ IS2170492 19/03/2018 2018-03-19 14:00 2018-03-19 15:00 SUPPLY OF FRP DEMARCATION STRIP   0.00 Single
239 OFAJ IS2170493 19/03/2018 2018-04-07 14:00 2018-04-07 15:00 TPT OF DEFENCE GOODS FROM OFBOL   0.00 Single
240 OFAJ IS2170494 19/03/2018 2018-04-07 14:00 2018-04-07 15:00 TRANSPORTATION OF DEFENCE STORES   0.00 Single
241 OFAJ IS2170495 19/03/2018 2018-04-07 14:00 2018-04-07 15:00 TPT.OF STORE FROM OFAJ TO AFK,PUNE   0.00 Single
242 OFAJ IS2170496 19/03/2018 2018-03-30 14:00 2018-03-30 15:00 TRANSPORTATION OF DEFENCE STORES   0.00 Single
243 HAPP 170334 19/03/2018 2018-04-26 14:00 2018-04-26 14:30 MOLYBDENUM BATT MLR QUALITY   0.00 Single
244 HAPP 170336 19/03/2018 2018-04-05 14:00 2018-04-05 14:30 PEDESTAL FAN 1 PHASE,750MM SWEEP   0.00 Single
245 OLF 1706011798 19/03/2018 2018-04-13 15:00 2018-04-13 15:00 BULB OPMT-26-15,BULB 56/8-28V/0.04A,BULB, MN 26-0.12-V-1   16996.00 Single
246 OLF 1706011799 19/03/2018 2018-04-13 15:00 2018-04-13 15:00 MICROSWITCH PM24-2B,PLUG GRPMSH1-61SHU2V,PLUG GRPMSH1-45SHU2V,SIL SOCKET 20 WAY TURNED PIN,SOCKET RPS1-M-21G,CONNECTOR PLUG 2RMG39B45SH2E2,PLUG 2RMG14B4SHIE2B,CONNECTOR (S) DAM15S,CONNECTOR PLUG-DAM15   89288.00 Single
247 OLF 1706011800 19/03/2018 2018-04-16 15:00 2018-04-16 15:00 DIE CASTING HOLDER,DIE/TOOLING FOR HOLDER DC/290   28031.00 Single
248 OLF 1706011801 19/03/2018 2018-04-16 15:00 2018-04-16 15:00 COVER CASTING,DIE/TOOLING FOR COVER DC/060,DIE CASTING BODY ASSY,DIE/TOOLING FOR BODY ASSY.,PR DIE CASTING BUSH,DIE/TOOLING FOR BUSH DC/65,PR DIE CASTING PLATE,DIE/TOOLING FOR PLATE   406440.00 Single
249 OLF 1706011802 19/03/2018 2018-04-20 15:00 2018-04-20 15:00 PRESSURE DIE CASTING BRACKET,DIE/TOOLING FOR BRACKET DC/217,PRESSURE DIE CASTING BRACKET,DIE TOOLING FOR BRACKET,DIE CASTING BASE DC/275,DIE/TOOLING FOR BASE DC/275   142692.00 Single
250 OLF 1706011803 19/03/2018 2018-04-20 15:00 2018-04-20 15:00 PRESSURE DIE CASTING BODY,DIE/TOOLING FOR BODY DC/205 M2   112210.00 Single
251 OFBOL 17180242 19/03/2018 2018-04-10 14:30 2018-04-10 14:30 MINE A/T 4D ND (EMPTY ASSEMBLY) TO   219091.00 Single
252 OFBOL 17180243 19/03/2018 2018-04-10 14:30 2018-04-10 14:30 ETHYLENE GLYCOL (GENERAL GRADE) TO   13215.00 Single
253 OFBOL 17180244 19/03/2018 2018-04-10 14:30 2018-04-10 14:30 POLYCHLOROPRENE ADHESIVE TO IND/ME/   6567.00 Single
254 AFK 20170794 17/03/2018 2018-04-13 14:00 2018-04-13 14:30 PAINT RFU FINI AMN ADMFB OLIV GREEN   0.00 Single
255 GSF 1700001152 17/03/2018 2018-04-17 00:00 2018-04-17 00:00 HIGH SPEED STEEL ROUND 90MM DIA IN STD.LENGTH., HSS 65 MM.DIA.:IS 7291:1981,T75.W18.CO5.CR4.MO.V1., HSS SQ 17MM TO T-125 W CO10 CR4 MO4 V3., HIGH SPEED STEEL SQUARE 22 MM IN STD.LENGTH.,   31600.00 Single
256 HEF ME17180028 17/03/2018 2018-04-06 00:00 2018-04-06 00:00 -REPLACEMENT OF EXISTING A8070112166   0.00 Single
257 HEF ME17180029 17/03/2018 2018-04-06 00:00 2018-04-06 00:00 -RE-PLASTERING AND F.R.P L8070112162   0.00 Single
258 HEF TE17180329 17/03/2018 2018-04-10 00:00 2018-04-10 00:00 -COLD ROLLED STEEL STRIP(0133069104   0.00 Single
259 HEF TE17180330 17/03/2018 2018-04-06 00:00 2018-04-06 00:00 -LEAD SHEET 20 LBS 0800220902   0.00 Single
260 HEF TE17180331 17/03/2018 2018-04-10 00:00 2018-04-10 00:00 -HOSE - STEAM. 9910970028   0.00 Single
261 OFA B7TE110936 17/03/2018 2018-04-17 14:30 2018-04-17 15:00 ,CAUSTIC SODA-PURE RAYON GRADE etc.   0.00 Single
262 OFA B7TE110938 17/03/2018 2018-04-07 14:30 2018-04-07 15:00 ,FINAL TAPER CARBIDE DIE FOR 30MM CC etc.   0.00 Single
263 OFA B7TE110939 17/03/2018 2018-04-07 14:30 2018-04-07 15:00 ,1ST TAPER CARBIDE DIE FOR 30MM CC etc.   0.00 Single
264 OFA B7TE120937 17/03/2018 2018-04-06 14:30 2018-04-06 15:00 ,WIRELESS HANDHELD MIKE UHF BAND,WIRELESS HANDHELD MIKE UHF BAND etc.   0.00 Single
265 SAF 3173000975 17/03/2018 2018-04-17 14:30 2018-04-17 15:00 HYDRAULIC MACHINE VICE JAWS OP,   0.00 Single
266 OFBH 20170333 17/03/2018 2018-03-23 14:30 2018-03-23 14:30 SM SHEET H.R. 2.5x1250x2500 MM,   0.00 Single
267 OCFC 2017LTE263 17/03/2018 2018-04-04 00:00 2018-04-04 00:00 ,WIRE BPVLE 95MM, TY 16-505-911-76 ,HESSIAN CLOTH 40 INCHES ,TAR TARANG QUARTERLY NEWS PAPER 170 GSM GLOSSY PAP,ELECTRICAL INSULATING FIREMAN'S BOOT   0.00 Single
268 HVF 0204170147 17/03/2018 2018-03-24 12:00 2018-03-24 15:00 WASHER , etc.   0.00 Single
269 HVF 0405171024 17/03/2018 2018-03-30 12:00 2018-03-30 15:00 BEARING 782726 OR 20-782726M , etc.   0.00 Single
270 HVF 0411171025 17/03/2018 2018-04-11 12:00 2018-04-11 15:00 GASKET , etc.   0.00 Single
271 OFBOL 17180241 17/03/2018 2018-04-10 14:30 2018-04-10 14:30 PLYWOOD 6 MM(+/-6%) THICKNESS OF   10838.00 Single
272 OFDR 2017000673 17/03/2018 2018-04-10 14:30 2018-04-10 15:00 1. APC NO.202 ADHESIVE SHELLAC THICK   0.00 Single
273 GSF 1700001146 16/03/2018 2018-04-05 00:00 2018-04-05 00:00 MEMBRANE TO DRG NO NAI (J) 501/6/2 IN F/C.,   0.00 Single
274 GSF 1700001147 16/03/2018 2018-04-05 00:00 2018-04-05 00:00 LITTLE CUP TO DRG NO NAI(J) 501/8/7 IN F/C.,   0.00 Single
275 GSF 1700001148 16/03/2018 2018-04-05 00:00 2018-04-05 00:00 STEEL BALL 3.5MM DIA TO DRG NO NAI(J) 501/5 IN F/C,   0.00 Single
276 GSF 1700001149 16/03/2018 2018-04-09 00:00 2018-04-09 00:00 CHARCOAL COMMERCIAL,   0.00 Single
277 GSF 1700001150 16/03/2018 2018-04-17 00:00 2018-04-17 00:00 PARTING TOOL HOLDER DGTL 25B 2D 35 TO SUIT INSERT, TOOL HOLDER SVJBL 2020 K 16., TURNING TOOL HOLDER ISO NO.SVJBR 2020 M 16 TO SUIT, INDEXABLE MILLING INSERT FOR ALUMINIUM GRADE EDPT,, INDEXABLE MILL   0.00 Single
278 OFA B7TE110934 16/03/2018 2018-04-06 14:30 2018-04-06 15:00 ,OIL KEROSENE AS PER IS:1459-1974 etc.   0.00 Single
279 OFA B7TE110935 16/03/2018 2018-04-13 14:30 2018-04-13 15:00 ,TPT OF DEF STORE TO CPE ITARSI 16MT etc.   0.00 Single
280 OFK 17CST-1005 16/03/2018 2018-03-30 14:30 2018-03-30 13:00 GMT THREE JAW POWER OPT.CHUCK,GMT MAKE THREE JAW CHUCK DIA 165 MM etc.   0.00 Single
281 SAF 3173000963 16/03/2018 2018-04-10 14:30 2018-04-10 15:00 SOLID CARBIDE HOLE MIL DIA 8.8,   0.00 Single
282 SAF 3173000964 16/03/2018 2018-04-10 14:30 2018-04-10 15:00 M/C TAP HSS-E SIZE M5X0.8PX SH,   0.00 Single
283 SAF 3173000965 16/03/2018 2018-04-10 14:30 2018-04-10 15:00 COBALT DRILL DIA.2.0MM AS PER,   0.00 Single
284 SAF 3173000966 16/03/2018 2018-04-10 14:30 2018-04-10 15:00 SOLID CARBIDE REAMER DIA 3.0MM,   0.00 Single
285 SAF 3173000967 16/03/2018 2018-04-10 14:30 2018-04-10 15:00 REAMER 8.867DIAXOAL80.00XFL42X,   0.00 Single
286 SAF 3173000968 16/03/2018 2018-04-10 14:30 2018-04-10 15:00 HSS - E DRILL DIA.2.20MM X FL2,   0.00 Single
287 SAF 3173000969 16/03/2018 2018-04-10 14:30 2018-04-10 15:00 HSS-E DRILL DIA 2.26MM X FL27,   0.00 Single
288 SAF 3173000970 16/03/2018 2018-04-10 14:30 2018-04-10 15:00 TWIST DRILL P/S FULL CARBIDE 2,   0.00 Single
289 SAF 3173000971 16/03/2018 2018-04-10 14:30 2018-04-10 15:00 SOLID CARBIDE DRILL DIA 3.3MM,   0.00 Single
290 SAF 3173000972 16/03/2018 2018-04-10 14:30 2018-04-10 15:00 SOLID CARBIDE DRILL 3.5MMDIA I,   0.00 Single
291 SAF 3173000973 16/03/2018 2018-04-06 14:30 2018-04-06 15:00 PIN EXTRACTOR PH-10-2 IN FINIS,   0.00 Single
292 SAF 3173000974 16/03/2018 2018-04-06 14:30 2018-04-06 15:00 MAIN SPRING STRIP TO DRG NO PH,   0.00 Single
293 OFBH 20170331 16/03/2018 2018-04-06 14:30 2018-04-06 14:30 TIP NOZZLE FOR LIGHT WEIGHT BL,ARCWELD. ELECTRODE HOLDER400A,OXYGEN REGULATOR SERVICEABLE,   7145.00 Single
294 OFBH 20170332 16/03/2018 2018-04-06 14:30 2018-04-06 14:30 TWIST DRILL 5.5MM.,H/HACKSAW BLADE HSS 300X12.5,GRINDING WHEEL 150X20X25.4MM,   0.00 Single
295 HVF 0404171021 16/03/2018 2018-04-04 12:00 2018-04-04 15:00 COVER PLATE , etc.   0.00 Single
296 HVF 0404171022 16/03/2018 2018-03-30 12:00 2018-03-30 15:00 HEAD LIGHT FG-127 ASSY , etc.   0.00 Single
297 HVF 0404171023 16/03/2018 2018-04-04 12:00 2018-04-04 15:00 BRACKET , etc.   0.00 Single
298 HVF 0902170037 16/03/2018 2018-04-12 12:00 2018-04-12 15:00 HARNESS FRONT LIGHTING , etc.   0.00 Single
299 HVF 1700117058 16/03/2018 2018-04-11 12:00 2018-04-11 15:00 BOOSTER , etc.   0.00 Single
300 OFV 20170494 16/03/2018 2018-04-17 14:30 2018-04-17 15:00 BALL BEARING NO B7002 CA,   0.00 Single
301 OFV 20170495 16/03/2018 2018-04-17 14:30 2018-04-17 15:00 SIMATIC S7 MICRO MEMORY CARD FOR,   0.00 Single
302 OFV 20170496 16/03/2018 2018-04-17 14:30 2018-04-17 15:00 BOARD PVC BOX TYPE SIZE:6" X 8".,BOARD PVC BOX TYPE SIZE: 4" X 7".,   0.00 Single
303 OFV 20170497 16/03/2018 2018-04-20 14:30 2018-04-20 15:00 FLEXIBLE CONDUIT PVC PIPE, SIZE -,FLEXIBLE CONDUIT PVC PIPE, SIZE -,   0.00 Single
304 OFAJ FS2170132 16/03/2018 2018-03-20 14:00 2018-03-20 15:00 CORR.FIBREBOARD P/CORTON FS-2376 E.   0.00 Single
305 OFAJ IS2170491 16/03/2018 2018-04-06 14:00 2018-04-06 15:00 ACRYLIC EXTERIOR EMULSION PAINT W.C, ANCHOR BOLT M10 X 150MM, ANCHOR BOLT M12 X 150MM, HAYNESS STALLITE ALLOY NO.6 [3/16", LIME QUICK IN LUMP FORM., RUBBER HOSE FOR WELD. RED 8MM BORE, RUBBER HOSE FOR   0.00 Single
306 OFAJ SS2170034 16/03/2018 2018-04-05 14:00 2018-04-05 15:00 THREAD PROTECTOR.DRG.NO.SM/952.   0.00 Single
307 OFAJ SS2170035 16/03/2018 2018-04-16 14:00 2018-04-16 15:00 THREAD PROTECTOR.DRG.NO.SM/952.   0.00 Single
308 OFT G560L96849 16/03/2018 2018-04-10 14:30 2018-04-10 15:00 M.S.TUBES SIZE.15MM DIA ,GALVANISED TUBES 20 MM DI ,GALVANISED M.S.TUBES 25 MM DIA   0.00 Single
309 HAPP 170333 16/03/2018 2018-04-05 14:00 2018-04-05 14:30 HYDRAULIC CLAMPING CYLINDER 120MM,MK-2   0.00 Single
310 MSF 17TE210482 15/03/2018 2018-04-07 14:30 2018-04-07 14:30 RD.HOT TOP BOARD FOR 23"INGOT MOULD etc.   8530.00 Single
311 MSF 17TE210483 15/03/2018 2018-04-07 14:30 2018-04-07 14:30 BOTTOM PLATE FOR INGOT MOULD etc.   19990.00 Single
312 MSF 17TE220479 15/03/2018 2018-04-13 14:30 2018-04-13 14:30 CABLE REELING DRUM FOR MAGNET CRANE etc.   Single
313 MSF 17TE220481 15/03/2018 2018-04-11 14:30 2018-04-11 14:30 TRANSFORMER RECTIFIER WITH CONTROL etc.   8673.00 Single
314 GSF 1700001143 15/03/2018 2018-03-21 00:00 2018-03-21 00:00 DISC TO DRG.NO.QX 336 IN FINISHED CONDITION,FZ-162,   0.00 Single
315 GSF 1700001144 15/03/2018 2018-03-22 00:00 2018-03-22 00:00 NUT TO DET NO.(2-16) DRG. NO.3-024045,   0.00 Single
316 HEF ME17180027 15/03/2018 2018-04-03 00:00 2018-04-03 00:00 -SUPPLY,ERECTION & COMMISI8070112167   0.00 Single
317 OFA B7TE210933 15/03/2018 2018-04-06 14:30 2018-04-06 15:00 ,LEMON AS PER TERMS & CONDITIONS ENC etc.   0.00 Single
318 OFA B7TE220932 15/03/2018 2018-04-19 14:30 2018-04-19 15:00 ,SUPPLY & FIXING OF PLC, HMI etc.   0.00 Single
319 OFA B7TE320931 15/03/2018 2018-04-05 14:30 2018-04-05 15:00 ,AMC OF PYROMETER AJAY SYSCON -10NOS etc.   0.00 Single
320 OFK 17CST-1004 15/03/2018 2018-03-27 14:30 2018-03-27 13:00 AUTOPRO AB 1400 (HARDNER) & (RESIN),BF-4(AUTOPRO SB 2801 PC) etc.   0.00 Single
321 SAF 3173000961 15/03/2018 2018-04-03 14:30 2018-04-03 15:00 BUSH STUD HAMMER, DRG. NO. PH-,   0.00 Single
322 SAF 3173000962 15/03/2018 2018-04-06 14:30 2018-04-06 15:00 LOW ALLOY STEEL SPECTROSCOPIC,LOW ALLOY STEEL SPECTROSCOPIC,   0.00 Single
323 OFBH 20170326 15/03/2018 2018-03-22 14:30 2018-03-22 14:30 PROCESSING FOR BOX SM-642-D,PROCESSING FOR BOX SM-642-D,PROCESSING FOR BOX SM-642-D,   0.00 Single
324 OFBH 20170327 15/03/2018 2018-03-22 14:30 2018-03-22 14:30 SERVICES FOR BOX H2A (NEW),   0.00 Single
325 OFBH 20170328 15/03/2018 2018-03-22 14:30 2018-03-22 14:30 PROCESSING FOR BOX C-52A,   0.00 Single
326 OFBH 20170329 15/03/2018 2018-03-22 14:30 2018-03-22 14:30 PROCESSING FOR CYLINDER 12A (P,   15780.00 Single
327 OFBH 20170330 15/03/2018 2018-03-22 14:30 2018-03-22 14:30 SERVICES FOR BOX H5A,   0.00 Single
328 OFBA 170905 15/03/2018 2018-04-17 14:30 2018-04-17 14:30 SS SPLIT BACKING FLANGE,4 HOLE   0.00 Single
329 OFBA 170906 15/03/2018 2018-04-17 14:30 2018-04-17 14:30 GLSSS TUBE OLEUM ROTAMETER   0.00 Single
330 OFBA 170907 15/03/2018 2018-04-17 14:30 2018-04-17 14:30 RUSTOLENE   0.00 Single
331 OFBA 170908 15/03/2018 2018-04-17 14:30 2018-04-17 14:30 FLOW MEASURING AND COMPUTING S   0.00 Single
332 OFBA 170909 15/03/2018 2018-04-24 14:30 2018-04-24 14:30 FLAMEPROOF EXHAUST FAN,610/24"   0.00 Single
333 OFBA 170910 15/03/2018 2018-04-24 14:30 2018-04-24 14:30 GUN METAL BUSHES   0.00 Single
334 HVF 0102170283 15/03/2018 2018-03-31 12:00 2018-03-31 15:00 LEFT HAND REAR SHIELD ASSY , etc.   0.00 Single
335 HVF 0401171018 15/03/2018 2018-04-18 12:00 2018-04-18 15:00 CLIP , etc.   0.00 Single
336 HVF 0405171019 15/03/2018 2018-04-12 12:00 2018-04-12 15:00 NEEDLE ROLLER BEARING DL1512 , etc.   0.00 Single
337 HVF 0405171020 15/03/2018 2018-04-12 12:00 2018-04-12 15:00 BEARING 941/20 , etc.   0.00 Single
338 HVF 0802170126 15/03/2018 2018-04-10 12:00 2018-04-10 15:00 PRE-PRINTED PAY BILL FOR OFFICERS , etc.   0.00 Single
339 OFAJ FS2170131 15/03/2018 2018-04-17 14:00 2018-04-17 15:00 STEEL BAR 22 -0.052 MM DIA   0.00 Single
340 OFAJ IS2170490 15/03/2018 2018-04-05 14:00 2018-04-05 15:00 ELECTRONIC DIGITAL WEIGHING SCALE, ELECTRONIC WEIGHING M/C,0 TO 5 KG., PROBE TYPE DIGITAL GAUSS METER   0.00 Single
341 OFAJ RS2170468 15/03/2018 2018-03-15 14:00 2018-03-15 15:00 WEAR RING HP FOR PART NO.281003645, ASSLY OF 3 PIECE PACKING WITH GS-RA, ASSLY OF 6 PIECE PACKING FOR, COMPRESSION RING FOR PART NO.281003, CUSHION PLATE WITH PART NO. 2460060, DELIVERY VALVE ASSEMBL   0.00 Single
342 OFT G100L96845 15/03/2018 2018-04-10 14:30 2018-04-10 15:00 ROTARY UNION - DEUBLIN 902-120 ,ROTARY UNION TC/C-905-510.   0.00 Single
343 OFT G110L96847 15/03/2018 2018-03-29 14:30 2018-03-29 15:00 LED STREET LIGHT LUMINAIRE   0.00 Single
344 OFT G190R96846 15/03/2018 2018-04-10 14:30 2018-04-10 15:00 RE-CONDITIONONG OF SURFACEPLAT   0.00 Single
345 OFT G220N96843 15/03/2018 2018-04-10 14:30 2018-04-10 15:00 HONING OIL INDROL(CASTROL)430   0.00 Single
346 OFT G490H96842 15/03/2018 2018-04-10 14:30 2018-04-10 15:00 BRA.CARB.DOVETAIL M.CUTTER 40   0.00 Single
347 OFT G559A96848 15/03/2018 2018-04-10 14:30 2018-04-10 15:00 STEEL SHEET 2.5 X 1000 X 2000   0.00 Single
348 OFT G560L96844 15/03/2018 2018-04-10 14:30 2018-04-10 15:00 LIMIT SWITCH ,LIMIT SWITCH ELEMENT FOR HMC-3 ,LIMIT SWITCH MODEL:RGBF-03R12   0.00 Single
349 OFCH 201700633 15/03/2018 2018-04-09 14:00 2018-04-09 14:30 TURKISH TOWEL BATH COTTON DYED   10370.00 Single
350 OFCH 201700634 15/03/2018 2018-04-09 14:00 2018-04-09 14:30 BALL STEEL ITX-244   615092.00 Single
351 OFCH 201700635 15/03/2018 2018-04-05 14:00 2018-04-05 14:30 STRIP AL.0.48MM THICK X 19 MM   5198.00 Single
352 OLF 1706041796 15/03/2018 2018-04-23 15:00 2018-04-23 15:00 PRINTED CIRCUIT BOARD,PRINTED CIRCUIT BOARD,PRINTED CIRCUIT BOARD,PRINTED CIRCUIT BOARD,PRINTED CIRCUIT BOARD   44681.00 Single
353 AFK 20170782 14/03/2018 2018-04-10 14:00 2018-04-10 14:30 ELGI AIR LUBE PLUS OIL   16310.00 Single
354 AFK 20170786 14/03/2018 2018-03-23 14:00 2018-03-23 14:30 AMYL ACETATE TECH.GR.IS-231-1957   0.00 Single
355 AFK 20170787 14/03/2018 2018-04-10 14:00 2018-04-10 14:30 SET OF PKG. PIECES FOR LIMPET MINE   0.00 Single
356 AFK 20170788 14/03/2018 2018-03-23 14:00 2018-03-23 14:30 PAP.WHITE FINE,0.089MM TH. 84-92GSM   11908.00 Single
357 AFK 20170789 14/03/2018 2018-04-10 14:00 2018-04-10 14:30 APC.NO.210(N.C.LACQUER UNDYED)   0.00 Single
358 GSF 1700001137 14/03/2018 2018-03-26 00:00 2018-03-26 00:00 Pin Hinge to Drg.No.QX-1248 in Finished Condition,   0.00 Single
359 GSF 1700001139 14/03/2018 2018-04-02 00:00 2018-04-02 00:00 MACHINING AND PROCESSING OF STAINLESS STEEL STRIP,   0.00 Single
360 GSF 1700001140 14/03/2018 2018-04-05 00:00 2018-04-05 00:00 GAUGE TESTING,STRAIGHTNESS OF BORE,9A 5220-000780,   0.00 Single
361 GSF 1700001142 14/03/2018 2018-04-17 00:00 2018-04-17 00:00 INSERT TO ISO NO:11 I RM A 60 TO SUIT TOOL HOLDER,   0.00 Single
362 HEF AD17180056 14/03/2018 2018-04-05 00:00 2018-04-05 00:00 -SODIUM HYPOCHLORITE-GRADE9910931375   0.00 Single
363 HEF AD17180057 14/03/2018 2018-04-07 00:00 2018-04-07 00:00 -DIMETHYL FORMAMIDE 9910931376   24700.00 Single
364 OFA B7TE110929 14/03/2018 2018-04-17 14:30 2018-04-17 15:00 ,DRY RAMMING MASS`J' TYPE. etc.   0.00 Single
365 OFA B7TE110930 14/03/2018 2018-04-17 14:30 2018-04-17 15:00 ,GLOVES LEATHER HAND 16" LONG etc.   0.00 Single
366 OFK 17CST-1000 14/03/2018 2018-03-16 14:30 2018-03-16 13:00 HIR.OF TATA INDIGO(AC)/MARUTI SWIFT   0.00 Single
367 OFK 17CST-1001 14/03/2018 2018-04-13 14:30 2018-04-13 13:00 INSERT -DGR 3102 J-6D IC 328.   0.00 Single
368 OFK 17CST-1002 14/03/2018 2018-04-13 14:30 2018-04-13 13:00 SET OF SIEMENS SPARES AS PER ANNEX   0.00 Single
369 SAF 3173000955 14/03/2018 2018-04-06 14:30 2018-04-06 15:00 FLUX RUPATAM"A"SILVER BRAZING,   0.00 Single
370 SAF 3173000956 14/03/2018 2018-04-06 14:30 2018-04-06 15:00 DETERGENT CAKE 250 GRAM PACK,   0.00 Single
371 SAF 3173000957 14/03/2018 2018-04-10 14:30 2018-04-10 15:00 BARREL COVER ASSEMBLY FOR JVPC,   6670.00 Single
372 SAF 3173000958 14/03/2018 2018-04-10 14:30 2018-04-10 15:00 GAS CYLINDER COVER MOULDING FO,   0.00 Single
373 SAF 3173000959 14/03/2018 2018-04-06 14:30 2018-04-06 15:00 LIQUID NITROGEN GAS.,   0.00 Single
374 HVF 0104170281 14/03/2018 2018-03-31 12:00 2018-03-31 15:00 DRAIN HOLE COVER , etc.   0.00 Single
375 HVF 0104170282 14/03/2018 2018-03-31 12:00 2018-03-31 15:00 SPRING RING , etc.   0.00 Single
376 HVF 0204170146 14/03/2018 2018-03-22 12:00 2018-03-22 15:00 SHIM WASHER , etc.   0.00 Single
377 HVF 0401171014 14/03/2018 2018-04-11 12:00 2018-04-11 15:00 SHIELD , etc.   0.00 Single
378 HVF 0401171015 14/03/2018 2018-04-11 12:00 2018-04-11 15:00 PLATE , etc.   0.00 Single
379 HVF 0405171016 14/03/2018 2018-03-22 12:00 2018-03-22 15:00 CLIP ASSY , etc.   0.00 Single
380 HVF 0405171017 14/03/2018 2018-04-10 12:00 2018-04-10 15:00 PIPE LINE , etc.   0.00 Single
381 OFAJ FS2170130 14/03/2018 2018-03-14 14:00 2018-03-14 15:00 STEEL STRIP 54MM X 0.2MM   0.00 Single
382 OFAJ IS2170489 14/03/2018 2018-03-20 14:00 2018-03-20 15:00 TPT FROM OFAJ TO O.F. KANPUR   0.00 Single
383 OFAJ RS2170465 14/03/2018 2018-04-10 14:00 2018-04-10 15:00 DOT MATRIX PRINTER FX-2175   0.00 Single
384 OFAJ RS2170466 14/03/2018 2018-04-10 14:00 2018-04-10 15:00 PILOT OPRATED DC VALVE WITH MODEL, REXROTH MAKE DC VALVE WITH MODEL NO   0.00 Single
385 OFAJ RS2170467 14/03/2018 2018-04-10 14:00 2018-04-10 15:00 REXROTH MAKE SANDWICH TYPE PRESURE   0.00 Single
386 OFT G333A53606 14/03/2018 2018-04-05 14:30 2018-04-05 15:00 STEEL MILD ROUND 70MM DIA C-20   0.00 Single
387 OFCH 201700632 14/03/2018 2018-04-09 14:00 2018-04-09 14:30 DESCALING CHEMICAL, WATER SOLU   0.00 Single
388 OLF 1706011795 14/03/2018 2018-04-06 15:00 2018-04-06 15:00 GASKET,GASKET,TERMINAL,SPRING,LEVER,TAPPERED BUSHING,CHAIN ASSY.,WASHER,WASHER,PIPE,SCREW,RING   8765.00 Single
389 OFDR 2017000663 14/03/2018 2018-04-10 14:30 2018-04-10 15:00 1. DIGITAL GLOSS METER WITH 45C & 60C   0.00 Single
390 OFDR 2017000664 14/03/2018 2018-04-10 14:30 2018-04-10 15:00 1. SOCKET G.I.MEDIUM QLTY.SIZE -1/2"   0.00 Single
391 OFDR 2017000665 14/03/2018 2018-04-10 14:30 2018-04-10 15:00 1. GI NIPPLE CLASS `B' MED.QLTY. -1/2"   0.00 Single
392 OFDR 2017000666 14/03/2018 2018-04-10 14:30 2018-04-10 15:00 1. GI ELBOW 15mm   0.00 Single
393 OFDR 2017000667 14/03/2018 2018-04-10 14:30 2018-04-10 15:00 1. GI REDUCER SOCKET 20 MM   0.00 Single
394 OFDR 2017000668 14/03/2018 2018-04-10 14:30 2018-04-10 15:00 1. HYDRAULIC DOOR CLOSER   0.00 Single
395 OFDR 2017000669 14/03/2018 2018-04-10 14:30 2018-04-10 15:00 1. GAUGE TO CHECK SPRING TENSION   0.00 Single
396 AFK 20170780 13/03/2018 2018-03-20 14:00 2018-03-20 14:30 GODREJ SOFA SET (CARBO) (3+1+1), GODREJ MK SOFA SET C SHAPE BROADWAY ETC.   9200.00 Single
397 AFK 20170781 13/03/2018 2018-03-20 14:00 2018-03-20 14:30 GODREJ CHOCOLAT QUEEN SIZE BED, GODREJ SOFA SET WOODEN FRAME-PARTO, GODREJ SOFA SET WOODEN FRAME - JEM ETC.   29390.00 Single
398 HEF CT17180027 13/03/2018 2018-04-02 00:00 2018-04-02 00:00 -CLEANING AND REMOVAL OF 8101212218   0.00 Single
399 OFA B7TE120917 13/03/2018 2018-04-13 14:30 2018-04-13 15:00 ,MONOBLOCK PUMP WITH INDUCTION MOTOR etc.   0.00 Single
400 OFA B7TE120918 13/03/2018 2018-04-13 14:30 2018-04-13 15:00 ,WELDING ELECTRODE 3.15MM,XUPER 2240 etc.   0.00 Single
401 OFA B7TE120919 13/03/2018 2018-04-13 14:30 2018-04-13 15:00 ,HYDRAULIC PRESSURE GAUGE 0-1000 LBS etc.   0.00 Single
402 OFA B7TE120920 13/03/2018 2018-04-13 14:30 2018-04-13 15:00 ,SOLENOID OPERATED RELIEF VALVE. etc.   0.00 Single
403 OFA B7TE120921 13/03/2018 2018-04-13 14:30 2018-04-13 15:00 ,MS ROUND 32MM 20C8(C20) IS:1570:19-,STEEL EN-24, 60 MM DIA X 3 MTR LONG etc.   0.00 Single
404 OFA B7TE120922 13/03/2018 2018-04-13 14:30 2018-04-13 15:00 ,HYDRAULIC PUMP,MODEL:PVB521CM11IN15,PRESSURE REDUCING VALVE,XG 06 3F. etc.   0.00 Single
405 OFA B7TE120924 13/03/2018 2018-04-06 14:30 2018-04-06 15:00 ,CONTROL TRANSFORMER FOR M/FCE (NMS),CONTROL TRANSFORMER 415V/230V,110V, etc.   0.00 Single
406 OFA B7TE120925 13/03/2018 2018-04-06 14:30 2018-04-06 15:00 ,SWITCH SOCKET COMBINE 16AMP/6AMP. etc.   0.00 Single
407 OFA B7TE120926 13/03/2018 2018-04-06 14:30 2018-04-06 15:00 ,COMBO PHONE etc.   0.00 Single
408 OFA B7TE120927 13/03/2018 2018-04-06 14:30 2018-04-06 15:00 ,PHASE CONTROL THYRISTOR TYPE NOT253 etc.   0.00 Single
409 OFA B7TE120928 13/03/2018 2018-04-06 14:30 2018-04-06 15:00 ,THYRISTOR POWER CONTROLLER 100 KW etc.   0.00 Single
410 OFA B7TE220923 13/03/2018 2018-04-06 14:30 2018-04-06 15:00 ,RAIL ALIGNMENT OF EOT CRANES. etc.   0.00 Single
411 OFK 17CST-0999 13/03/2018 2018-04-06 14:30 2018-04-06 13:00 PREFABRICATE SECURITY CABINS=02 NOS   0.00 Single
412 OFBA 170900 13/03/2018 2018-04-19 14:30 2018-04-19 14:30 CABLE ELECTRIC 2.5 SQ.MM,4CORE   0.00 Single
413 OFBA 170901 13/03/2018 2018-04-19 14:30 2018-04-19 14:30 PIPE STEAM M.S.SIZE-1".   0.00 Single
414 OFBA 170902 13/03/2018 2018-04-19 14:30 2018-04-19 14:30 PIPE WATER G.I.SIZE- 2"   0.00 Single
415 OFBA 170903 13/03/2018 2018-04-19 14:30 2018-04-19 14:30 ASBESTOS ROPE, 12.5 MM   0.00 Single
416 OFBA 170904 13/03/2018 2018-04-19 14:30 2018-04-19 14:30 M.S.ANGLE SIZE-40X40X6MM   0.00 Single
417 OCFC 2017LTE261 13/03/2018 2018-04-19 00:00 2018-04-19 00:00 ,WIRE BPVLE 95MM, TY 16-505-911-76 ,HESSIAN CLOTH 40 INCHES ,TAR TARANG QUARTERLY NEWS PAPER 170 GSM GLOSSY PAP,ELECTRICAL INSULATING FIREMAN'S BOOT   8400.00 Single
418 OCFC 2017LTE262 13/03/2018 2018-03-14 00:00 2018-03-14 00:00 ,WIRE BPVLE 95MM, TY 16-505-911-76 ,HESSIAN CLOTH 40 INCHES ,TAR TARANG QUARTERLY NEWS PAPER 170 GSM GLOSSY PAP,ELECTRICAL INSULATING FIREMAN'S BOOT   0.00 Single
419 HVF 0411171013 13/03/2018 2018-04-04 12:00 2018-04-04 15:00 HOSE CONNECTION , etc.   0.00 Single
420 OFAJ IS2170487 13/03/2018 2018-03-13 14:00 2018-03-13 15:00 CONSULTANCY FOR TAX RELATED SERVICE   0.00 Single
421 OFAJ RS2170464 13/03/2018 2018-04-03 14:00 2018-04-03 15:00 SUPPLY & FITMENT OF SAFETY GUARDS   0.00 Single
422 OFT G199A96841 13/03/2018 2018-03-13 14:30 2018-03-13 15:00 TUBE OD 42.4mm WT 3.2mm TRIPOD   0.00 Single
423 OFT G685E53602 13/03/2018 2018-04-05 14:30 2018-04-05 15:00 SWIVEL SLING FRONT 29P 0070*   0.00 Single
424 OFT G685E53603 13/03/2018 2018-04-05 14:30 2018-04-05 15:00 SPRING SC BAND INNER 29P 0061*   0.00 Single
425 OFT G685E53604 13/03/2018 2018-04-05 14:30 2018-04-05 15:00 CATCH MAGAZINE TO 29P 0045*   0.00 Single
426 OFT G685E53605 13/03/2018 2018-04-05 14:30 2018-04-05 15:00 SPRING MAIN DRG. NO.SP-15   0.00 Single
427 OLF 1706041794 13/03/2018 2018-05-16 15:00 2018-05-16 15:00 PRODUCT YEP-6 (I.C.TUBE),ELECTRIC UNIT,OPTO MECHANICAL SHUTTER,PUTTY-135 P,OST3-5605-91,GREEN PUTTY 50M,PUTTY 220T,GREASE PROTON   5000000.00 Single
428 OFBOL 17180238 13/03/2018 2018-04-03 14:30 2018-04-03 14:30 PAINT READYMIXED(MIDDLE BUFF) AIR   8689.00 Single
429 AFK 20170776 12/03/2018 2018-04-06 14:00 2018-04-06 14:30 CONT P 17,ARDE 1910 DET 1TO5 ERU204   0.00 Single
430 GSF 1700001132 12/03/2018 2018-04-11 00:00 2018-04-11 00:00 INSERT ( CODE : VCMT 160404 / VBMT 160404 OR EQV.), INSERT ISO NO CNMG 120408 IC 907/GC 4325/TT 5080/K, INSERT NO:DNMA 150612 GR.GC 3210/KC 9315., INSERT NO:CCMT 09T 308 SM IC-907/PM-4315/TT-5080/,   0.00 Single
431 GSF 1700001133 12/03/2018 2018-04-11 00:00 2018-04-11 00:00 TOOL HOLDER C1/C4-25 X 20/16 WEIGHT(KG):1.15,EMPLO, RADIAL DRILLING AND MILLING HEAD ER 25A X UT WEIGH, AXIL DRILLING & MILLING HEAD ER 25 AX UT IC WEIGHT,   0.00 Single
432 GSF 1700001134 12/03/2018 2018-04-02 00:00 2018-04-02 00:00 STEEL RD 14.5MM - 0.1MM TO IS-4431 10 C8 S10 IN CD,   0.00 Single
433 GSF 1700001135 12/03/2018 2018-04-05 00:00 2018-04-05 00:00 PLUNGER CATCH TO D.S.CAT.NO.1005-001730 IN F/C.,   0.00 Single
434 HEF TE17180327 12/03/2018 2018-04-05 00:00 2018-04-05 00:00 -DIMETHYL FORMAMIDE 9910931376   24700.00 Single
435 HEF TR17180014 12/03/2018 2018-03-19 00:00 2018-03-19 00:00 -TRANSPORTATION OF S.N.A 8080611020-TRANSPORTATION OF S.N.A 8080611021-TRANSPORTATION OF S.N.A 8080611022-TRANSPORTATION OF S.N.A 8080611023-TRANSPORTATION OF S.N.A 8080611019   8750.00 Single
436 OFA B7TE110916 12/03/2018 2018-04-13 14:30 2018-04-13 15:00 ,TALLOW AS PER SPECN:IND/SL/2803(C). etc.   0.00 Single
437 OFA B7TE120911 12/03/2018 2018-04-03 14:30 2018-04-03 15:00 ,RECTIFIER UNIT 17 KVA, SHORT CIRC. etc.   0.00 Single
438 OFA B7TE120912 12/03/2018 2018-04-06 14:30 2018-04-06 15:00 ,DIGITAL 8 I/P & 8 O/P SM1223 etc.   0.00 Single
439 OFA B7TE120913 12/03/2018 2018-04-06 14:30 2018-04-06 15:00 ,DIGITAL O/P SM1222, 8 DO, 24 V DC etc.   0.00 Single
440 OFA B7TE120914 12/03/2018 2018-04-06 14:30 2018-04-06 15:00 ,ANALOG OUTPUT MODULE SM1232 4 AO,ANALOG INPUT MODULE SM1231 4 AI etc.   0.00 Single
441 OFA B7TE120915 12/03/2018 2018-04-06 14:30 2018-04-06 15:00 ,DIGITAL I/P SM1221, 16 DI, 24 V DC etc.   0.00 Single
442 OFK 17CST-0992 12/03/2018 2018-04-13 14:30 2018-04-13 13:00 SEPERATION CLOTH PE 158 HD(MAYFRAN)   0.00 Single
443 OFK 17CST-0993 12/03/2018 2018-04-20 14:30 2018-04-20 13:00 COLLET TO DRG.NO-KHT250455/26,COLLET TO DRG.-150155/7,COLLET DRG.NO. PP/T-1504-A/81.,COLLET DRG. NO. PPT/1504 A /72 A,COLLETDRG.PP/T/1504A/73 DIA9.06+.02 etc.   0.00 Single
444 OFK 17CST-0994 12/03/2018 2018-04-13 14:30 2018-04-13 13:00 DIAL INDICATOR 56 MM DIA 10 MM TRAV   0.00 Single
445 OFBH 20170325 12/03/2018 2018-04-03 14:30 2018-04-03 14:30 RUBBER TYRE,TUBE,& FLAP,FORK L,   0.00 Single
446 OFBA 170893 12/03/2018 2018-04-12 14:30 2018-04-12 14:30 OXYGEN ANALYZER SENSOR   0.00 Single
447 OFBA 170894 12/03/2018 2018-04-19 14:30 2018-04-19 14:30 DISCHARGE FILTER ASSLY PT NO.   0.00 Single
448 OFBA 170895 12/03/2018 2018-04-19 14:30 2018-04-19 14:30 WIRE COPPER ENAMELLED,18.5 SWG   0.00 Single
449 OFBA 170896 12/03/2018 2018-04-19 14:30 2018-04-19 14:30 FILE CASE ALMIRAH SIZE:78"X32"   0.00 Single
450 OFBA 170897 12/03/2018 2018-04-19 14:30 2018-04-19 14:30 REFRIGERANT RECOVERY UNIT   0.00 Single
451 OFBA 170898 12/03/2018 2018-04-19 14:30 2018-04-19 14:30 TEMP.SENSOR,P.NO.56.101.50.047   0.00 Single
452 OCFC 2017LTE259 12/03/2018 2018-04-19 00:00 2018-04-19 00:00 ,WIRE BPVLE 95MM, TY 16-505-911-76 ,HESSIAN CLOTH 40 INCHES ,TAR TARANG QUARTERLY NEWS PAPER 170 GSM GLOSSY PAP,ELECTRICAL INSULATING FIREMAN'S BOOT   11500.00 Single
453 HVF 0104170279 12/03/2018 2018-04-02 12:00 2018-04-02 15:00 PLATE R.H. , etc.   0.00 Single
454 HVF 0104170280 12/03/2018 2018-04-02 12:00 2018-04-02 15:00 YOKE , etc.   0.00 Single
455 HVF 0408171007 12/03/2018 2018-04-04 12:00 2018-04-04 15:00 BOLT , etc.   0.00 Single
456 OFV 20170491 12/03/2018 2018-04-13 14:30 2018-04-13 15:00 SHAFT ENCODER, SSI INTERFACE, 4096,   0.00 Single
457 OFV 20170492 12/03/2018 2018-04-13 14:30 2018-04-13 15:00 PORCELIEN HOLDERS FOR E-27 SCREW,   0.00 Single
458 OFV 20170493 12/03/2018 2018-04-13 14:30 2018-04-13 15:00 INTEGRATED BALLAST UNIT 2000 WATTS,   0.00 Single
459 OFAJ FS2170129 12/03/2018 2018-04-12 14:00 2018-04-12 15:00 STEEL PLATE 23MM T X 286MM W X 1430   0.00 Single
460 OFAJ IS2170483 12/03/2018 2018-04-04 14:00 2018-04-04 15:00 AC 90 LIQUID MAINTANANCE SPRAY., INSULATING OIL CONFIRMING TO IS-335   0.00 Single
461 OFAJ IS2170484 12/03/2018 2018-04-04 14:00 2018-04-04 15:00 BLAZECUT FIRE SUPPRESSION SYSTEM   0.00 Single
462 OFAJ IS2170485 12/03/2018 2018-03-20 14:00 2018-03-20 15:00 TRANS. FROM OFAJ TO ORD.FYS.KANPUR   0.00 Single
463 OFAJ IS2170486 12/03/2018 2018-03-22 14:00 2018-03-22 15:00 CONTRACT FOR 'ON-SITE'PAINTING   0.00 Single
464 OFAJ MS2170131 12/03/2018 2018-04-12 14:00 2018-04-12 15:00 SLITTING CUTTER LOUIS BELET MAKE   0.00 Single
465 OFAJ MS2170132 12/03/2018 2018-04-12 14:00 2018-04-12 15:00 P.T.T.H.(RH)SDJCR 2525 M11., PLAIN TURNING T.H.R171-31-2525-12, SOLID CARBIDE DRILL 4.50 MM DIA., SOLID CARBIDE ENDMILL CUTTER ISCAR, UNCOATED CARBIDE INSERT CCGX 120404   0.00 Single
466 OFT G110L96839 12/03/2018 2018-03-20 14:30 2018-03-20 15:00 TEAK WOOD ROUND BLOCK. ,roses ceiling fixing 2 plt pen ,ONE WAY PIANO SWITCH, BOX TYPE ,SWITCH TINY SURFACE 5AMPS250V ,SINGLE CORE STRANDED COPPER CO ,SINGLE CORE STRANDED COPPER CO   0.00 Single
467 OFT G230R96838 12/03/2018 2018-04-03 14:30 2018-04-03 15:00 DY-MIL-20C-200   0.00 Single
468 OLF 1706011790 12/03/2018 2018-04-09 11:00 2018-04-09 11:00 THINNER 821 CODE-821900,STOVING ENA.PAINT (LIGHT KHAKI,PAINT SYNTHETIC BLACK   13891.00 Single
469 OLF 1706011792 12/03/2018 2018-04-09 15:00 2018-04-09 15:00 PHOTO DIODE FD 9E 111A   218694.00 Single
470 OLF 1706011793 12/03/2018 2018-04-13 15:00 2018-04-13 15:00 CASTO MAG 4043   0.00 Single
471 OLF 1706041791 12/03/2018 2018-04-16 15:00 2018-04-16 15:00 TUBE(GLASS),GRATICULE,GRATICULE   98126.00 Single
472 OFDR 2017000656 12/03/2018 2018-04-03 14:30 2018-04-03 15:00 1. SODA ASH TECHNICAL IS:251/1982   0.00 Single
473 OFDR 2017000657 12/03/2018 2018-04-03 14:30 2018-04-03 15:00 1. DRAWING FOLDER (TOP & BOTTOM)   0.00 Single
474 OFDR 2017000658 12/03/2018 2018-04-03 14:30 2018-04-03 15:00 1. COPPER FLEX. WIRE 4 SQ.MM   0.00 Single
475 OFDR 2017000659 12/03/2018 2018-04-03 14:30 2018-04-03 15:00 1. MS GIFFY JOINT-75MM.   0.00 Single
476 OFDR 2017000660 12/03/2018 2018-04-03 14:30 2018-04-03 15:00 1. MS GIFFY JOINT-150MM   0.00 Single
477 OFDR 2017000661 12/03/2018 2018-04-03 14:30 2018-04-03 15:00 1. MS GIFFY JOINT-100MM.   0.00 Single
478 OFDR 2017000662 12/03/2018 2018-04-03 14:30 2018-04-03 15:00 1. MILD STEEL SHEET 6 MM THICK   0.00 Single
479 AFK 20170773 10/03/2018 2018-04-03 14:00 2018-04-03 14:30 HIGH WATT DENSITY CARTRIDGE HEATER   0.00 Single
480 AFK 20170774 10/03/2018 2018-04-03 14:00 2018-04-03 14:30 CAST IRON MELTING POT   0.00 Single
481 GSF 1700001129 10/03/2018 2018-04-02 00:00 2018-04-02 00:00 TRANSPORTN. OF MILITARY STORE FROM GSF TO MAZGAON.,   11500.00 Single
482 GSF 1700001130 10/03/2018 2018-03-20 00:00 2018-03-20 00:00 PLUG TO DRG NO-ITV-171,   0.00 Single
483 HEF TE17180325 10/03/2018 2018-04-05 00:00 2018-04-05 00:00 -HOSE STEAM(IS-10655/87 TY9910933665   0.00 Single
484 HEF TE17180326 10/03/2018 2018-04-03 00:00 2018-04-03 00:00 -SODIUM SULPHATE 9910932440   0.00 Single
485 OFK 17CST-0988 10/03/2018 2018-03-14 14:30 2018-03-14 13:00 APPOINTING FREIGHT/CLEARING AGENT   0.00 Single
486 OFK 17CST-0989 10/03/2018 2018-04-13 14:30 2018-04-13 13:00 BIB-TAP STNDRD PTMT T-HANDLE,15MM   0.00 Single
487 OFK 17CST-0991 10/03/2018 2018-04-06 14:30 2018-04-06 13:00 TOOL HOLDER SER 2525 M16,MAKE:WIDIA,HOLDER-SVJCR 2020 K16.,HOLDER- SVJCL 2525 M16.,TOOL HOLDER GHSL-12.2 etc.   0.00 Single
488 SAF 3173000951 10/03/2018 2018-04-03 14:30 2018-04-03 15:00 COLLET CHUCK HOLDER BT40 AT 3,   0.00 Single
489 SAF 3173000952 10/03/2018 2018-04-03 14:30 2018-04-03 15:00 COLLET CHUCK HOLDER SK - 40,   0.00 Single
490 SAF 3173000953 10/03/2018 2018-04-03 14:30 2018-04-03 15:00 VERNIER CALIPER DIGITAL 0 TO 3,VERNIER CALLIPER 0-150MM DIGIT,   0.00 Single
491 SAF 3173000954 10/03/2018 2018-04-06 14:30 2018-04-06 15:00 MICROGRAIN LUGGED CARBIDE T-SL,MICROGRAIN LUGGED CARBIDE T SL,   0.00 Single
492 OFBH 20170324 10/03/2018 2018-03-23 14:30 2018-03-23 14:30 FABRICATION WORK OF BOX SM-51,   0.00 Single
493 OFBA 170892 10/03/2018 2018-04-03 14:30 2018-04-03 14:30 COMPREHENSIVE AMC OF COOLER   0.00 Single
494 HVF 0704170199 10/03/2018 2018-03-20 12:00 2018-03-20 15:00 TECH SEALANT RDL 840 , etc.   0.00 Single
495 HVF 0901170036 10/03/2018 2018-04-05 12:00 2018-04-05 15:00 RING , etc.   0.00 Single
496 OFV 20170490 10/03/2018 2018-04-10 14:30 2018-04-10 15:00 KEYLESS PRECISON DRILL CHUCK,   0.00 Single
497 OFAJ IS2170482 10/03/2018 2018-03-10 14:00 2018-03-10 15:00 ENTRANCE & EXIT AREA OF FOUNDRY   0.00 Single
498 OFT G100L96835 10/03/2018 2018-04-05 14:30 2018-04-05 15:00 SEALS AND BEARING KIT   0.00 Single
499 OFT G160R96833 10/03/2018 2018-04-03 14:30 2018-04-03 15:00 STEEL ALMIRAH 1885X920X485 MM   0.00 Single
500 OFT G160R96834 10/03/2018 2018-04-05 14:30 2018-04-05 15:00 STORAGE CABINET 1980 MMXHX915   0.00 Single
501 OFT G190R96831 10/03/2018 2018-04-03 14:30 2018-04-03 15:00 PAPER BAND FILTER IN ROLL   0.00 Single
502 OFT G22MB96823 10/03/2018 2018-04-03 14:30 2018-04-03 15:00 IC FOR BLOCK STOCK 30P 5001   0.00 Single
503 OFT G230R96830 10/03/2018 2018-04-03 14:30 2018-04-03 15:00 TUMBLER BASKET   0.00 Single
504 OFT G470R96836 10/03/2018 2018-04-05 14:30 2018-04-05 15:00 MATERIAL CUTTING EQUIPMENT   0.00 Single
505 OFT G490H96824 10/03/2018 2018-04-03 14:30 2018-04-03 15:00 INDEXABLE SQUARE SHOULDER 80MM   0.00 Single
506 OFT G490H96825 10/03/2018 2018-04-03 14:30 2018-04-03 15:00 INDEX.MILLING CUTTER DIA 63MM   0.00 Single
507 OFT G490H96826 10/03/2018 2018-04-03 14:30 2018-04-03 15:00 SOLID CARBIDE MICRO GRAIN END   0.00 Single
508 OFT G490H96827 10/03/2018 2018-04-03 14:30 2018-04-03 15:00 Inserts for fine boring alloy   0.00 Single
509 OFT G490H96829 10/03/2018 2018-04-03 14:30 2018-04-03 15:00 IND. END MILL DIA 25 MM (MGL)   0.00 Single
510 OFT G50SA96837 10/03/2018 2018-03-20 14:30 2018-03-20 15:00 STEEL BAR RECTANGULAR 42X65 mm   0.00 Single
511 OFT G550H96828 10/03/2018 2018-04-03 14:30 2018-04-03 15:00 COLLET FOR ISO 40 TAPER THROUG   0.00 Single
512 OFT G550R96832 10/03/2018 2018-04-03 14:30 2018-04-03 15:00 TIG WELDING TUNGSTON ELECTRODE   0.00 Single
513 OFCH 201700622 10/03/2018 2018-04-02 14:00 2018-04-02 14:30 SODIUM HYDROXIDE PELLETS AR,IS   0.00 Single
514 OFCH 201700623 10/03/2018 2018-04-05 14:00 2018-04-05 14:30 PULP BOARD HAND COL. 71 X 59 C   0.00 Single
515 OFCH 201700636 10/03/2018 2018-03-15 14:00 2018-03-15 14:30 CROSS LINKED POLYETHYLENE FOAM   0.00 Single
516 OLF 1706011789 10/03/2018 2018-03-31 15:00 2018-03-31 15:00 BOX(CASTING) DC/349,DIE TOOLING FOR DC/349,DIE/TOOLING FOR COVER DC/350M2,COVER CASTING DC/350M2   96579.00 Single
517 AFK 20170769 09/03/2018 2018-04-03 14:00 2018-04-03 14:30 FLAMEPROOF DIRECT ON LINE STARTER, 4 CORE, 1.5 SQ.MM POWER CABLE,1.1KV ETC.   0.00 Single
518 GSF 1700001128 09/03/2018 2018-04-02 00:00 2018-04-02 00:00 KEYLESS DRILL CHUCK WITH M.T.SHANK & TANG(0-6)MM., KEYLESS DRILL CHUCK WITH MT SHANK & TANG 0-13 MM.,   0.00 Single
519 HEF AD17180055 09/03/2018 2018-03-31 00:00 2018-03-31 00:00 -COAL STEAM 'B' GRADE 9910950016   53600.00 Single
520 HEF CT17180026 09/03/2018 2018-03-16 00:00 2018-03-16 00:00 -2D CUM 3D DRAWING SOFTWAR8100511013   8400.00 Single
521 HEF TE17180322 09/03/2018 2018-03-29 00:00 2018-03-29 00:00 -ADHESIVE SYNTHETIC.TO 1003012711   0.00 Single
522 HEF TE17180323 09/03/2018 2018-03-29 00:00 2018-03-29 00:00 -CLIPS SEALS 13MM 0.15MM 0145089547   0.00 Single
523 HEF TE17180324 09/03/2018 2018-03-30 00:00 2018-03-30 00:00 -PAINT RM STEN SGF 1011338356   12800.00 Single
524 OFK 17CST-0987 09/03/2018 2018-03-13 14:30 2018-03-13 13:00 GUN POWDER G-12 JSS-1376-05:2014   0.00 Single
525 SAF 3173000949 09/03/2018 2018-03-30 14:30 2018-03-30 15:00 CEMENT WHITE HEAT A (REFRECTOR,   0.00 Single
526 SAF 3173000950 09/03/2018 2018-04-03 14:30 2018-04-03 15:00 STEEL FORGING TO DRG.NO.SKM-30,   8390.00 Single
527 OFBH 20170323 09/03/2018 2018-04-03 14:30 2018-04-03 14:30 COTTON WASTE WHITE IS-6612-79.,   0.00 Single
528 OFBA 170885 09/03/2018 2018-04-10 14:30 2018-04-10 14:30 WATER DISPENSER 20 LITRE CAPAC   0.00 Single
529 OFBA 170886 09/03/2018 2018-04-12 14:30 2018-04-12 14:30 SIDE TOOL CARBIDE TIPPED 150MM   0.00 Single
530 OFBA 170887 09/03/2018 2018-04-12 14:30 2018-04-12 14:30 PLYWOOD 6MM   0.00 Single
531 OFBA 170888 09/03/2018 2018-04-12 14:30 2018-04-12 14:30 HIGH PRESSURE CUTOUT SWITCH   0.00 Single
532 OFBA 170889 09/03/2018 2018-04-12 14:30 2018-04-12 14:30 BEARING ROLLER NU 313ECJ SKF   0.00 Single
533 OFBA 170890 09/03/2018 2018-04-12 14:30 2018-04-12 14:30 BALL BEARING SRDG NO. 6210 SKF   0.00 Single
534 HVF 0201170145 09/03/2018 2018-03-13 12:00 2018-03-13 15:00 BOLT , etc.   0.00 Single
535 HVF 0204170144 09/03/2018 2018-03-19 12:00 2018-03-19 15:00 WASHER , etc.   0.00 Single
536 HVF 0405171003 09/03/2018 2018-04-05 12:00 2018-04-05 15:00 PIPE , etc.   0.00 Single
537 HVF 0405171004 09/03/2018 2018-04-05 12:00 2018-04-05 15:00 SINGLE ROW RADIAL BALL BEARING , etc.   0.00 Single
538 HVF 0405171005 09/03/2018 2018-04-05 12:00 2018-04-05 15:00 CLAMP , etc.   0.00 Single
539 OFAJ FS2170126 09/03/2018 2018-04-11 14:00 2018-04-11 15:00 ALUMINIUM ALLOY ROD SIZE:14 MM DIA   0.00 Single
540 OFAJ FS2170127 09/03/2018 2018-04-11 14:00 2018-04-11 15:00 AL.ALLOY ROUNDS 10MM DIA W/O PGG   0.00 Single
541 OFAJ FS2170128 09/03/2018 2018-03-17 14:00 2018-03-17 15:00 CARBON STEEL ROUNDS 23.5 MM DIA.   0.00 Single
542 OFAJ MS2170129 09/03/2018 2018-04-09 14:00 2018-04-09 15:00 TOOLING SET A)BIMU MAKE TOOL HOLDER   0.00 Single
543 OFAJ MS2170130 09/03/2018 2018-04-09 14:00 2018-04-09 15:00 COPY BOR.BAR CODE S 20 S-SDUCR-11M., DSM INDX.HEAD DRILL T/SET CONST.OF-, SPECIAL THREADING TOOLING SET OF CA, T/INSERT 16IRM 2.00 ISO K 10.   0.00 Single
544 OFAJ NS2170121 09/03/2018 2018-03-19 14:00 2018-03-19 15:00 ALUMINIUM-COPPER MASTER ALLOY 45-55   0.00 Single
545 OFAJ NS2170122 09/03/2018 2018-03-19 14:00 2018-03-19 15:00 ALUMINIUM-COPPER MASTER ALLOY 45-55   0.00 Single
546 OFAJ RS2170462 09/03/2018 2018-04-03 14:00 2018-04-03 15:00 ELECTRONIC BALLAST 1X36 W & 1X40 W, H.P.SODIUM VAPOUR LAMP 70W.230/250V, PVC RECTANGULAR BOX, PVC REGTANGULAR BOX   0.00 Single
547 OFAJ RS2170463 09/03/2018 2018-04-03 14:00 2018-04-03 15:00 IND.PROX.SWITCH M30 .   0.00 Single
548 OFAJ SS2170032 09/03/2018 2018-04-09 14:00 2018-04-09 15:00 CONVERSION OF BOAT TAIL FORGING   0.00 Single
549 OFAJ SS2170033 09/03/2018 2018-03-28 14:00 2018-03-28 15:00 PLUG 52MM ISX-377 DC-36785A 8-10-01   0.00 Single
550 OFT G333A1 09/03/2018 2018-04-03 14:30 2018-04-03 15:00 IS:4432-DES 17 Mn1 Cr95   0.00 Single
551 OFT G333A53599 09/03/2018 2018-04-03 14:30 2018-04-03 15:00 IS:4432-DES 17 Mn1 Cr95   0.00 Single
552 OFT G333A53600 09/03/2018 2018-04-03 14:30 2018-04-03 15:00 IS:4432 DES 17Mn1 Cr95   0.00 Single
553 OFT G685E53601 09/03/2018 2018-04-03 14:30 2018-04-03 15:00 MAGAZINE ASSEMBLY DRG.SP-4/11   0.00 Single
554 HAPP 170331 09/03/2018 2018-03-20 14:00 2018-03-20 14:30 PRECISION GROUND BALL SCREW WITH NUT   0.00 Single
555 OLF 1706011783 09/03/2018 2018-03-31 15:00 2018-03-31 15:00 PR DIE CASTING COVER,DIE/TOOLNG COVER DC/339   95686.00 Single
556 OLF 1706011784 09/03/2018 2018-03-31 15:00 2018-03-31 15:00 PLATE CASTING,DIE TOOLING FOR PLATE DC/106,PR. DIE CASTING KNOB,DIE TOOLING FOR KNOB DC/101,PR.DIE CASTING KNOB,DIE TOOLING FOR KNOB DC/089,DIE CASTING BODY,DIE TOOLING FOR BODY DC/159,DIE FOR HOLDER,   190144.00 Single
557 OLF 1706011785 09/03/2018 2018-03-31 15:00 2018-03-31 15:00 PR.DIE CASTING HOLDER,DIE TOOLING FOR HOLDER DC/032,DIE/TOOLING FOR NUT,PR.DIE CASTING NUT,PR.DIE CASTING BODY,DIE TOOLING FOR BODY DC/027   156346.00 Single
558 OLF 1706011786 09/03/2018 2018-03-30 15:00 2018-03-30 15:00 DIE/TOOLING FOR LOWER BODY,PR DIE CASTING LOWER BODY,PR DIE CASTING UPPER COVER,DIE TOOLING FOR COVER DC/80   135007.00 Single
559 OLF 1706011787 09/03/2018 2018-03-30 15:00 2018-03-30 15:00 DIE/TOOLING FOR BODY DC/161 M3,PR.DIE CASTING BODY DC/161 M3,DIE/TOOLING FOR BODY,PR.DIE CASTING BODY DC/222 M6   397954.00 Single
560 OLF 1706011788 09/03/2018 2018-03-30 15:00 2018-03-30 15:00 BODY DC/129 M4,DIE TOOLING FOR BODY DC/129,BODY CASTING,DIE TOOLING FOR BODY DC/187   174140.00 Single
561 OFDR 2017000655 09/03/2018 2018-03-30 14:30 2018-03-30 15:00 1. SPRING FOR PARA FLARE RED   0.00 Single
562 AFK 20170767 08/03/2018 2018-04-03 14:00 2018-04-03 14:30 SURGE WAVE RECEIVER-LOCATING FAULT   0.00 Single
563 GSF 1700001123 08/03/2018 2018-04-02 00:00 2018-04-02 00:00 11V9 CBN GRINDING WHEEL 70 DEGREE SPN. B91RR100W.,   0.00 Single
564 GSF 1700001125 08/03/2018 2018-03-29 00:00 2018-03-29 00:00 PAINT RM SIGNAL RED TO ISC-537 TO SPCN.IS-138-1981,   0.00 Single
565 HEF AD17180054 08/03/2018 2018-03-29 00:00 2018-03-29 00:00 -METHANOL 9910931353   0.00 Single
566 HEF TE17180320 08/03/2018 2018-03-28 00:00 2018-03-28 00:00 -PTFE SPACER SIZE 40 NB X 2012300033-PTFE SPACER SIZE 40 NB X 2012300034-PTFE SPACER SIZE 40 NB X 2012300035-MS PTFE LINED ELBOW 90 DE2012300036-MS PTFE LINED ELBOW 45 DE2012300037-MS FEP LINED EQUAL   0.00 Single
567 HEF TE17180321 08/03/2018 2018-03-28 00:00 2018-03-28 00:00 -CONTROL VALVE - 40 MM(1-19910930634-CONTROL VALVE - 25 MM (1"9910930635-CONTROL VALVE - 25 MM (19910930636   0.00 Single
568 OFA B7TE110904 08/03/2018 2018-04-06 14:30 2018-04-06 15:00 ,ABRASIVE CLOTH,GRIT-400 MAKE:VSM/3M etc.   0.00 Single
569 OFA B7TE110906 08/03/2018 2018-04-06 14:30 2018-04-06 15:00 ,TWIST DRILL PARLL SHANK 7.00 CARB T etc.   0.00 Single
570 OFA B7TE110908 08/03/2018 2018-04-10 14:30 2018-04-10 15:00 ,3 MM DOUBLE ENDED GROOVING INSERTS etc.   0.00 Single
571 OFA B7TE110909 08/03/2018 2018-04-10 14:30 2018-04-10 15:00 ,BORING BAR S0610H SWUBR-06, ISCAR etc.   0.00 Single
572 OFA B7TE110910 08/03/2018 2018-04-10 14:30 2018-04-10 15:00 ,OIL ENGOL J 680 OF BPCL TO IS:1589- etc.   0.00 Single
573 OFA B7TE120907 08/03/2018 2018-03-27 14:30 2018-03-27 15:00 ,60 WATT LED STREET LIGHT etc.   0.00 Single
574 OFA B7TE320905 08/03/2018 2018-03-27 14:30 2018-03-27 15:00 ,SCR PUCK etc.   0.00 Single
575 OFBH 20170321 08/03/2018 2018-03-15 14:30 2018-03-15 14:30 S.M.FLAT 5X25MM TO IS-1079-94.,   17352.00 Single
576 OFBH 20170322 08/03/2018 2018-03-20 14:30 2018-03-20 14:30 CAPCELL 215X150X16MM,CAPCELL 290X30X6MM,   0.00 Single
577 HVF 0204170143 08/03/2018 2018-03-12 12:00 2018-03-12 15:00 SPRING WASHER , etc.   0.00 Single
578 HVF 0401171001 08/03/2018 2018-04-11 12:00 2018-04-11 15:00 SUPPORT R.H , etc.   0.00 Single
579 HVF 0401171002 08/03/2018 2018-04-11 12:00 2018-04-11 15:00 STUD , etc.   0.00 Single
580 OFAJ IS2170480 08/03/2018 2018-03-29 14:00 2018-03-29 15:00 BLANK CONTINOUS STY.10X12-2(GREEN), RULED REGISTER (1 QUIRE), RULED REGISTER 4 QRS., RULED REGISTERS (2 QUIRES), RULLED REGISTER 3 QUIR.   0.00 Single
581 OFAJ IS2170481 08/03/2018 2018-03-28 14:00 2018-03-28 15:00 FILE FOLDER, PHOTOSTAT PAPER SIZE: A-3., TENDER ENQUIRY FORM.DGOF/MM-1,60GSM   0.00 Single
582 OFAJ MS2170127 08/03/2018 2018-04-09 14:00 2018-04-09 15:00 INSERT.SNMM190624GR.HR4215/RPKC9110   0.00 Single
583 OFAJ MS2170128 08/03/2018 2018-04-09 14:00 2018-04-09 15:00 GROOVING & THREADING SET OF APPLITE   0.00 Single
584 OFAJ RS2170461 08/03/2018 2018-03-08 14:00 2018-03-08 15:00 REPAIRING/REWINDING OF 40KVA ISO TR   0.00 Single
585 OFAJ TS2170289 08/03/2018 2018-03-30 14:00 2018-03-30 15:00 MEGGER-INSULATION TESTER, MIT 400.   0.00 Single
586 OFCH 201700616 08/03/2018 2018-03-15 14:00 2018-03-15 14:30 DVD   0.00 Single
587 OLF 1706011782 08/03/2018 2018-04-09 15:00 2018-04-09 15:00 DIAMOND WHEEL DRGNO.OPT/S/1020,DIAMOND WHEEL DRGNO.OPT/S/1019,DIAMOND DRILLING TOOL   0.00 Single
588 OFDR 2017000654 08/03/2018 2018-03-30 14:30 2018-03-30 15:00 1. ODR-512 INSTRUCTION LABEL(F.SIGNAL)   0.00 Single
589 AFK 20170764 07/03/2018 2018-03-09 14:00 2018-03-09 14:30 GUN POWDER GRANULATED G 12 JSS-1376   0.00 Single
590 AFK 20170765 07/03/2018 2018-03-30 14:00 2018-03-30 14:30 DIE T.C. FOR HEADING OPERATION C.C., DIE T.C. FOR PAPER TUBE ETC.   8430.00 Single
591 AFK 20170766 07/03/2018 2018-04-27 14:00 2018-04-27 14:30 CHEMICAL AMO BRITE 4100   0.00 Single
592 MSF 17TE210462 07/03/2018 2018-03-29 14:30 2018-03-29 14:30 COMPRESSED ARGON GAS 99.99% PURE etc.   27175.00 Single
593 GSF 1700001117 07/03/2018 2018-04-06 00:00 2018-04-06 00:00 HOUSING LEVER SEAR TO DRG.NO.M8201B(PB-8) F/C,   0.00 Single
594 GSF 1700001118 07/03/2018 2018-04-06 00:00 2018-04-06 00:00 FORGING OF SLIDE TO DRG.NO.RFI SK-9073 FOR PISTOL.,   0.00 Single
595 GSF 1700001119 07/03/2018 2018-04-06 00:00 2018-04-06 00:00 PIN FIRING FRONT TO DRG.NO PB-22 AS FIN/COMP.,   0.00 Single
596 GSF 1700001120 07/03/2018 2018-03-23 00:00 2018-03-23 00:00 SAFETY PLATE DRG.F-1321-437540-C.F/C.FUZE FFV-64C.,   0.00 Single
597 HEF ME17180026 07/03/2018 2018-03-27 00:00 2018-03-27 00:00 -NON COMPREHENSIVE ANNUAL 8070112055   0.00 Single
598 HEF TE17180319 07/03/2018 2018-03-27 00:00 2018-03-27 00:00 -ULTRASONIC LEVEL CONTROL 1575010854   0.00 Single
599 OFA B7TE120900 07/03/2018 2018-04-03 14:30 2018-04-03 15:00 ,IMMER HEATER FOR ALKAL SOL 3000 WAT etc.   0.00 Single
600 OFA B7TE120901 07/03/2018 2018-04-03 14:30 2018-04-03 15:00 ,ALKALINE & CHEMICAL IMMERSION HEATE etc.   0.00 Single
601 OFA B7TE120902 07/03/2018 2018-04-03 14:30 2018-04-03 15:00 ,IMMERSION HEATER TYPE PBST 3O/685 etc.   0.00 Single
602 OFA B7TE120903 07/03/2018 2018-04-03 14:30 2018-04-03 15:00 ,IMMERS.HEATER 6OOOW FOR SULPHERIC A etc.   0.00 Single
603 OFK 17CST-0977 07/03/2018 2018-04-06 14:30 2018-04-06 13:00 COPPER CLAD GLASS EPOXY 0.9+0.2MM   0.00 Single
604 OFK 17CST-0978 07/03/2018 2018-04-06 14:30 2018-04-06 13:00 ZINTHOBRITE 937A,ZINTHOBRITE 937 BP etc.   0.00 Single
605 OFK 17CST-0979 07/03/2018 2018-04-06 14:30 2018-04-06 13:00 SILICA GEL CRYSTAL 4-8MM IS-3401   0.00 Single
606 OFK 17CST-0980 07/03/2018 2018-04-06 14:30 2018-04-06 13:00 PAINT PFU BRUSHING FINE APPLE GREEN   0.00 Single
607 OFK 17CST-0981 07/03/2018 2018-04-06 14:30 2018-04-06 13:00 COMPOSITION CASE HARD. COMPOUND   0.00 Single
608 OFK 17CST-0982 07/03/2018 2018-04-06 14:30 2018-04-06 13:00 COTTON WASTE COLOURED FY. QLTY.   0.00 Single
609 OFK 17CST-0984 07/03/2018 2018-04-06 14:30 2018-04-06 13:00 GINTHOX AL990 WITHITSADDITIVE NO685   0.00 Single
610 OFK 17CST-0985 07/03/2018 2018-04-06 14:30 2018-04-06 13:00 RE-FILLING OF AIR GAS CYLINDER   0.00 Single
611 OFBA 170871 07/03/2018 2018-04-10 14:30 2018-04-10 14:30 CABLE ELECTRIC PVC .   0.00 Single
612 OFBA 170872 07/03/2018 2018-04-10 14:30 2018-04-10 14:30 BALL VALVE WITH PNEUMATIC ACTU   0.00 Single
613 OFBA 170873 07/03/2018 2018-04-10 14:30 2018-04-10 14:30 MCB,TPN,16A   0.00 Single
614 OFBA 170874 07/03/2018 2018-04-05 14:30 2018-04-05 14:30 IMPELLER FOR ENERGY PACK MAKE   0.00 Single
615 OFBA 175094 07/03/2018 2018-03-29 14:30 2018-03-29 14:30 CANDELILLA WAX   0.00 Single
616 OFBA 175095 07/03/2018 2018-03-29 14:30 2018-03-29 14:30 WAX CERASINE GRADE 80   0.00 Single
617 HVF 0204170142 07/03/2018 2018-03-16 12:00 2018-03-16 15:00 SHIM , etc.   0.00 Single
618 HVF 0405170999 07/03/2018 2018-04-02 12:00 2018-04-02 15:00 SEAL & SPRING ASSY. , etc.   0.00 Single
619 HVF 0405171000 07/03/2018 2018-04-05 12:00 2018-04-05 15:00 BEARING , etc.   0.00 Single
620 OFAJ FS2170124 07/03/2018 2018-04-09 14:00 2018-04-09 15:00 STEEL RD 35 MM DIA.BS970 GR 080M40   0.00 Single
621 OFAJ FS2170125 07/03/2018 2018-04-10 14:00 2018-04-10 15:00 STEEL STRIP 21.2MM (T) X 230MM (W)   0.00 Single
622 OFAJ IS2170479 07/03/2018 2018-03-07 14:00 2018-03-07 15:00 SUPPLY AND PASTING OF WALL PAPER   0.00 Single
623 OFAJ RS2170457 07/03/2018 2018-03-28 14:00 2018-03-28 15:00 ATOS MAKE VALVE -DHZO-A-071-S3-24DC, ATOS MAKE VALVE -SDHI-0751/2-23-24D, ATOS VALVE -DHU-0751/0-20, ROTOFLUX MAKE ROTARY UNION -K10-202   0.00 Single
624 OFAJ RS2170458 07/03/2018 2018-03-28 14:00 2018-03-28 15:00 SUPER PRECISION SINGLE ROW ANGULAR   0.00 Single
625 OFAJ RS2170459 07/03/2018 2018-03-29 14:00 2018-03-29 15:00 SUPPLY AND FIXING OF CCTV CAMERA   0.00 Single
626 OFAJ RS2170460 07/03/2018 2018-03-29 14:00 2018-03-29 15:00 SEAL KIT FOR DP 4X4 PLANT SEPARATOR   0.00 Single
627 OFAJ TS2170287 07/03/2018 2018-03-30 14:00 2018-03-30 15:00 BAND SAW BLADE 32X1.1X4MM, BIMETALIC BAND SAW BLADE 34X1.1X3/4, BIMETALLIC BAND SAW 34X1.1X2/3 TPI   0.00 Single
628 OFT G100L96822 07/03/2018 2018-03-27 14:30 2018-03-27 15:00 AXIAL RADIAL ROLLER BEARING   0.00 Single
629 OFCH 201700615 07/03/2018 2018-03-29 14:00 2018-03-29 14:30 PRF FOR SHELL 155MM ERFB BB   22539.00 Single
630 OLF 1706011779 07/03/2018 2018-04-16 15:00 2018-04-16 15:00 DIAMOND WHEEL FOR SLICING M/CS   9415.00 Single
631 OLF 1706011780 07/03/2018 2018-04-16 15:00 2018-04-16 15:00 DIGITAL DIAL INDICATOR   12168.00 Single
632 OLF 1706011781 07/03/2018 2018-04-06 11:00 2018-04-06 11:00 PLASTER OF PARIS,OPTICAL GRADE   7088.00 Single
633 OFDR 2017000652 07/03/2018 2018-04-03 14:30 2018-04-03 15:00 1. SET OF ASSEMBLED BODIES 81MM ILLG.   1012812.00 Single
634 AFK 20170759 06/03/2018 2018-04-03 14:00 2018-04-03 14:30 VANIKLIN - WB SOLUTION SPRAY, DE-SCALENT CALCODIL-M FOR COOLING, DISSOLVED ACETYLENE (GAS) IS:308, NITROGEN GAS (IND)CYL 6500/7000 CDM ETC.   6210.00 Single
635 AFK 20170761 06/03/2018 2018-04-03 14:00 2018-04-03 14:30 VORTEX AIR DRYER MODEL VXD -2   6200.00 Single
636 AFK 20170762 06/03/2018 2018-03-30 14:00 2018-03-30 14:30 POTASSIUM BICHROMATE TECH GR.IS-250   0.00 Single
637 GSF 1700001112 06/03/2018 2018-03-29 00:00 2018-03-29 00:00 LAPP CABLE TYPE UNITRONIC LIYCY(SHIELDED)16X0.25SQ, LAPP CABLE TYPE OLFLEX SERVO 720CY 4X2X0.14+4X0.5C,   0.00 Single
638 GSF 1700001113 06/03/2018 2018-03-28 00:00 2018-03-28 00:00 PROOF MACHINED BODY FOR 51MM HE TO DRG.NO.SK-8345/,   123476.00 Single
639 GSF 1700001114 06/03/2018 2018-03-12 00:00 2018-03-12 00:00 BIPOD ASSY(GUN MOUNT) COMPLETE PT NO.F-1303-028700,   74467.00 Single
640 GSF 1700001115 06/03/2018 2018-03-26 00:00 2018-03-26 00:00 Branded Paint Middle Buff Ready Mix Air Drying Sem,   7938.00 Single
641 GSF 1700001116 06/03/2018 2018-03-12 00:00 2018-03-12 00:00 PROOF MACHINED BODY FOR 51MM HE TO DRG.NO.SK-8345/,   0.00 Single
642 HEF AD17180053 06/03/2018 2018-03-29 00:00 2018-03-29 00:00 -G FUEL DRUM WITH TOMMY. 9910927135   45000.00 Single
643 OFA B7TE110899 06/03/2018 2018-03-27 14:30 2018-03-27 15:00 ,CARBIDE CUPPING DIE FOR 84 MMCG CC etc.   0.00 Single
644 OFA B7TE210898 06/03/2018 2018-04-06 14:30 2018-04-06 15:00 ,TRANSPORTN OF STORES TO OFKAT 16MT etc.   0.00 Single
645 SAF 3173000946 06/03/2018 2018-03-30 14:30 2018-03-30 15:00 EXTRACTOR (SMALL ARMS CARTRIDG,   0.00 Single
646 SAF 3173000948 06/03/2018 2018-04-06 14:30 2018-04-06 15:00 CONVERTER (POWER SUPPLY) 77-96,   0.00 Single
647 OFBA 170863 06/03/2018 2018-04-05 14:30 2018-04-05 14:30 PRINTER HEAD (C&Y) HP-PRO-8000   0.00 Single
648 OFBA 170864 06/03/2018 2018-04-05 14:30 2018-04-05 14:30 CHAIN PULLEY BLOCK,1 T,LIFT 12   0.00 Single
649 OFBA 170865 06/03/2018 2018-04-05 14:30 2018-04-05 14:30 WELDING CABLE SINGLE CORE FLEX   0.00 Single
650 OFBA 170866 06/03/2018 2018-04-05 14:30 2018-04-05 14:30 CENTRE DRILL HSS PILOT DIA 3MM   0.00 Single
651 OFBA 170867 06/03/2018 2018-04-10 14:30 2018-04-10 14:30 APPARATUS FOR DETERMINATION OF   0.00 Single
652 OFBA 170868 06/03/2018 2018-04-05 14:30 2018-04-05 14:30 WIRE COPPER 29 SWG SUPER ENAME   0.00 Single
653 OFBA 170869 06/03/2018 2018-04-05 14:30 2018-04-05 14:30 LOVE JOY COUPLING   0.00 Single
654 HVF 0102170278 06/03/2018 2018-03-20 12:00 2018-03-20 15:00 RIGHT-HAND BRACKET ASSY , etc.   0.00 Single
655 HVF 0201170141 06/03/2018 2018-03-15 12:00 2018-03-15 15:00 BOLT , etc.   0.00 Single
656 HVF 0411170998 06/03/2018 2018-04-04 12:00 2018-04-04 15:00 COVER PLATE , etc.   0.00 Single
657 OFAJ FS2170122 06/03/2018 2018-03-15 14:00 2018-03-15 15:00 STEEL BAR 22 -0.052 MM DIA   0.00 Single
658 OFAJ FS2170123 06/03/2018 2018-03-06 14:00 2018-03-06 15:00 SEALING DIAPHRAGM FS-526   0.00 Single
659 OFAJ IS2170476 06/03/2018 2018-04-06 14:00 2018-04-06 15:00 GRINDING OF ERFB 155 MM FORGING SHE   0.00 Single
660 OFAJ IS2170477 06/03/2018 2018-03-06 14:00 2018-03-06 15:00 CONTRACT FOR 'ON-SITE'PAINTING   0.00 Single
661 OFAJ IS2170478 06/03/2018 2018-03-06 14:00 2018-03-06 15:00 GAS NITROGEN INDUSTRIAL QUALITY   0.00 Single
662 OFAJ RS2170454 06/03/2018 2018-03-29 14:00 2018-03-29 15:00 BEARING NEEDLE ROLLER INA RNA-4914, BEARING NEEDLE ROLLER MCGILL CYR-4S   0.00 Single
663 OFAJ RS2170455 06/03/2018 2018-03-06 14:00 2018-03-06 15:00 SUPPLY AND FIXING OF CCTV CAMERA   0.00 Single
664 OFT G18UG53598 06/03/2018 2018-03-29 14:30 2018-03-29 15:00 SCREW DRIVER (PLASTIC)0.8 X 6   0.00 Single
665 OFT G22MB96820 06/03/2018 2018-04-03 14:30 2018-04-03 15:00 IC FOR TRIGGER 30P 3051   0.00 Single
666 OFT G559E96821 06/03/2018 2018-04-03 14:30 2018-04-03 15:00 A6029 LEVER REMOTE CONTROL   0.00 Single
667 OFCH 201700614 06/03/2018 2018-03-29 14:00 2018-03-29 14:30 ETHYL ACETATE.SPECN.IS-229-72   0.00 Single
668 HAPP 170327 06/03/2018 2018-03-15 14:00 2018-03-15 14:30 TONER BLACK Q2612A- HP LASERJET 1022-12A   0.00 Single
669 HAPP 170328 06/03/2018 2018-03-27 14:00 2018-03-27 14:30 INSERT FOR GROOVING   0.00 Single
670 HAPP 170329 06/03/2018 2018-03-15 14:00 2018-03-15 14:30 TABLET PC AS PER TECH. SPECN. ENCLOSED   0.00 Single
671 HAPP 170330 06/03/2018 2018-03-27 14:00 2018-03-27 14:30 CABLE ELECTRIC,16SQMM,Cu FIBREGLASS INSU   0.00 Single
672 OLF 1706011777 06/03/2018 2018-04-06 15:00 2018-04-06 15:00 SEALING RING   28224.00 Single
673 OLF 1706011778 06/03/2018 2018-04-09 15:00 2018-04-09 15:00 AUTOMATIC CONTROL UNIT9S517-1S   1652820.00 Single
674 AFK 20170756 05/03/2018 2018-03-30 14:00 2018-03-30 14:30 BUSH CUTTER FOR STEELTIP ARDE 1713.   0.00 Single
675 AFK 20170757 05/03/2018 2018-03-30 14:00 2018-03-30 14:30 PLASTIC BAG 3' X 2' 50 KG   0.00 Single
676 AFK 20170758 05/03/2018 2018-03-30 14:00 2018-03-30 14:30 SELF SUPPORT EXTENSION LADDER, SELF SUPPORT EXT. LADDER CLOSED 20' ETC.   0.00 Single
677 GSF 1700001110 05/03/2018 2018-03-27 00:00 2018-03-27 00:00 SAFETY LEVER WITHOUT NICKEL PLATING TO DRG.NO:M-8,   0.00 Single
678 GSF 1700001111 05/03/2018 2018-03-27 00:00 2018-03-27 00:00 PRECISION CASTING FOR SEAR TO DRG.NO.C-2086 A,   0.00 Single
679 HEF AC17180010 05/03/2018 2018-03-26 00:00 2018-03-26 00:00 -CONTRACT FOR OUTSOURCING 8100812103   63400.00 Single
680 HEF AC17180011 05/03/2018 2018-03-26 00:00 2018-03-26 00:00 -CONSERVANCY CONTRACT 8100812102   132550.00 Single
681 HEF AC17180012 05/03/2018 2018-03-26 00:00 2018-03-26 00:00 -MAINTENANCE OF GARDEN 8100812104   116550.00 Single
682 HEF TE17180308 05/03/2018 2018-03-27 00:00 2018-03-27 00:00 -PAPER WRAPING WAXED KRAFT1412860073   0.00 Single
683 HEF TE17180309 05/03/2018 2018-03-27 00:00 2018-03-27 00:00 -METHANOL 9910931353   0.00 Single
684 HEF TE17180310 05/03/2018 2018-03-15 00:00 2018-03-15 00:00 -FURNITURE 2509111034   29100.00 Single
685 OFA B7TE120893 05/03/2018 2018-04-03 14:30 2018-04-03 15:00 ,VANE PUMP,MODEL NO.VT6C0141R00B1. etc.   0.00 Single
686 OFA B7TE120894 05/03/2018 2018-04-03 14:30 2018-04-03 15:00 ,BALL VALVE, GUN METAL, SIZE:1/2". etc.   0.00 Single
687 OFA B7TE120895 05/03/2018 2018-04-03 14:30 2018-04-03 15:00 ,DIAPHRAGM FOR CLUTCH UNIT. etc.   0.00 Single
688 OFA B7TE120896 05/03/2018 2018-04-03 14:30 2018-04-03 15:00 ,SPROCKET FOR ANNEALING FURNACE HCC. etc.   0.00 Single
689 OFA B7TE120897 05/03/2018 2018-04-03 14:30 2018-04-03 15:00 ,OLP 12.5-5 (PRESS RATIO 50:1). etc.   0.00 Single
690 SAF 3173000945 05/03/2018 2018-03-27 14:30 2018-03-27 15:00 TOOL GUN DRILL DIA 7.25MM X LE,   0.00 Single
691 OFBH 20170320 05/03/2018 2018-03-13 14:30 2018-03-13 14:30 PROCESSING FOR AMMN.BOX SM-51,   0.00 Single
692 OCFAV 132/17-18 05/03/2018 2018-03-19 14:30 2018-03-19 14:30 VIRGIN PP STRAPPING 15MM X 0.5MM...   10150.00 Single
693 OCFAV 133/17-18 05/03/2018 2018-03-19 14:30 2018-03-19 14:30 TAPE ADHESIVE BROWN 50 MM WATER/PR.   6200.00 Single
694 HVF 0401170997 05/03/2018 2018-03-20 12:00 2018-03-20 15:00 BAND CLAMPING RADIATOR , etc.   0.00 Single
695 HVF 0411170994 05/03/2018 2018-04-04 12:00 2018-04-04 15:00 PROTECTIVE GLASS , etc.   0.00 Single
696 HVF 0411170995 05/03/2018 2018-04-04 12:00 2018-04-04 15:00 CLAMP ASSY , etc.   0.00 Single
697 HVF 0411170996 05/03/2018 2018-04-04 12:00 2018-04-04 15:00 PIPE LINE , etc.   0.00 Single
698 OFAJ FS2170121 05/03/2018 2018-03-19 14:00 2018-03-19 15:00 CONV.OF SLUG CC-514 TO CC-496D   0.00 Single
699 OFAJ IS2170475 05/03/2018 2018-03-05 14:00 2018-03-05 15:00 BEAUTIFICATION OF ENTRANCE & EXIT   0.00 Single
700 OFAJ RS2170453 05/03/2018 2018-03-28 14:00 2018-03-28 15:00 ELECTROSTATIC LIQUID CLEANER.   0.00 Single
701 OFT G330R96819 05/03/2018 2018-03-29 14:30 2018-03-29 15:00 COTTON WASTE WHITE   0.00 Single
702 OFT G685E53596 05/03/2018 2018-03-27 14:30 2018-03-27 15:00 SCREW SPRING BAND BACK SIGHT   0.00 Single
703 OFT G685E53597 05/03/2018 2018-03-27 14:30 2018-03-27 15:00 PAD SLING SP-37   0.00 Single
704 OLF 1706011776 05/03/2018 2018-03-26 15:00 2018-03-26 15:00 AUTOMATIC CONTROL UNIT9S517-1S   0.00 Single
705 OFDR 2017000649 05/03/2018 2018-04-03 14:30 2018-04-03 15:00 1. GODREJ VISITOR CHAIR EARL WITH ARMS   3.00 Single
706 OFDR 2017000650 05/03/2018 2018-03-27 14:30 2018-03-27 15:00 1. 3M 6200 REUSABLE RESPIRATOR   0.00 Single
707 OFDR 2017000651 05/03/2018 2018-03-27 14:30 2018-03-27 15:00 1. 3M CARTRIDGE 6003   0.00 Single
708 HEF AC17180009 04/03/2018 2018-03-26 00:00 2018-03-26 00:00 -CONSERVANCY CONTRACT 8100812101   171400.00 Single
709 HEF AD17180052 04/03/2018 2018-03-26 00:00 2018-03-26 00:00 -2:3 DIMETHYL DINITRO BUTA9910934500   84500.00 Single
710 HEF TE17180307 04/03/2018 2018-04-26 00:00 2018-04-26 00:00 -ASBESTOS PACKING MATALLIC1946154050-ASBESTOS ROPE 12.5 MM ROU1946901050-ASBESTOS PACKING-15 MM SQ9910933856-PACKING NON-ASBESTOS 6 MM9910935731-PURE TEFLON 5MM SQUARE RO9910960035-TEFLON ROPE UNIVERS   6750.00 Single
711 AFK 20170746 03/03/2018 2018-03-23 14:00 2018-03-23 14:30 PKG PIEC T&B 255mmL x 130mmW x10mmT   0.00 Single
712 AFK 20170747 03/03/2018 2018-03-23 14:00 2018-03-23 14:30 PKG PIEC END 175MM X 140MM X10MM TH   0.00 Single
713 AFK 20170748 03/03/2018 2018-03-23 14:00 2018-03-23 14:30 POLYSTRENE FOAM TYPE2, 275X142X6MM   0.00 Single
714 AFK 20170749 03/03/2018 2018-03-23 14:00 2018-03-23 14:30 E.P.FOAM TYPE 2 DENS 15/20KG/M3   0.00 Single
715 AFK 20170750 03/03/2018 2018-03-23 14:00 2018-03-23 14:30 PKG PIEC SIDE 255mmL X175mmW X 5mmT   0.00 Single
716 AFK 20170751 03/03/2018 2018-03-27 14:00 2018-03-27 14:30 WHITE CURD SOAP   0.00 Single
717 HEF TE17180304 03/03/2018 2018-03-22 00:00 2018-03-22 00:00 -ANNUAL MAINTENANCE CONTRA2012010026   0.00 Single
718 HEF TE17180305 03/03/2018 2018-03-22 00:00 2018-03-22 00:00 -ELECTRONIC TIMER 1528954765   0.00 Single
719 HEF TE17180306 03/03/2018 2018-03-22 00:00 2018-03-22 00:00 -FLEXIBLE COUPLING C.I.- L9910931133-COUPLING LOVE JOY TYPE L-2012460008   0.00 Single
720 OFBH 20170318 03/03/2018 2018-03-12 14:30 2018-03-12 14:30 PROCESSING OF PHOS.PAINTING 53,PROCESSING OF PHOS.PAINTING 53,   44844.00 Single
721 OFBH 20170319 03/03/2018 2018-03-12 14:30 2018-03-12 14:30 PROCESSING FOR AMMN.CONT.C-44A,   9000.00 Single
722 HVF 0102170277 03/03/2018 2018-03-15 12:00 2018-03-15 15:00 HINGE , etc.   0.00 Single
723 HVF 0401170989 03/03/2018 2018-04-04 12:00 2018-04-04 15:00 GASKET , etc.   0.00 Single
724 HVF 0401170990 03/03/2018 2018-03-28 12:00 2018-03-28 15:00 VALVE WITH COCK , etc.   0.00 Single
725 HVF 0401170991 03/03/2018 2018-04-04 12:00 2018-04-04 15:00 SPANNER S=11 , etc.   0.00 Single
726 HVF 0401170992 03/03/2018 2018-04-04 12:00 2018-04-04 15:00 GASKET , etc.   0.00 Single
727 HVF 0401170993 03/03/2018 2018-04-04 12:00 2018-04-04 15:00 PLUG , etc.   0.00 Single
728 OFAJ IS2170474 03/03/2018 2018-03-14 14:00 2018-03-14 15:00 TRANSPORTATION OF DEFENCE STORES   0.00 Single
729 OFAJ RS2170449 03/03/2018 2018-03-26 14:00 2018-03-26 15:00 HYD.TESTING OF ARGON GAS TESTING   0.00 Single
730 OFAJ TS2170282 03/03/2018 2018-03-26 14:00 2018-03-26 15:00 FLAT BIT TO DRG. NO. FS/T-3598C, HSS-E,TIN/TICN COATED,SPIRAL FLUTED, T.D.P.S.R.H.(LONG SERIES)5.00MM DIA, T.D.P.S.RH.JOBBER SERIES 6.50MM DIA, T/C 100/71X40X32X8X10 38A46K5VBE, TAP FS/T-950   0.00 Single
731 OFAJ TS2170283 03/03/2018 2018-03-26 14:00 2018-03-26 15:00 FORGED STEEL 817M40 (EN24)150MM DIA   0.00 Single
732 OFAJ TS2170284 03/03/2018 2018-03-26 14:00 2018-03-26 15:00 FORGE STEEL ROUND T105CR5,80MM DIA.   0.00 Single
733 OFAJ TS2170285 03/03/2018 2018-03-26 14:00 2018-03-26 15:00 T105CR5 FORGED STEEL, 255 MM DIA   0.00 Single
734 OFT G550N96817 03/03/2018 2018-03-20 14:30 2018-03-20 15:00 CUTTING FLUID   0.00 Single
735 OFCH 201700607 03/03/2018 2018-03-26 14:00 2018-03-26 14:30 BOX P60 MK 2/L   15969.00 Single
736 HAPP 170322 03/03/2018 2018-03-22 14:00 2018-03-22 14:30 FAN CEILING 48"(1200MM)SWEEP   0.00 Single
737 HAPP 170323 03/03/2018 2018-03-22 14:00 2018-03-22 14:30 FLAT BOTTOM SUPER COBALT INSERT   0.00 Single
738 HAPP 170324 03/03/2018 2018-03-20 14:00 2018-03-20 14:30 CIRCULAR SAW BLADES TYPE NE 2   0.00 Single
739 HAPP 170325 03/03/2018 2018-03-22 14:00 2018-03-22 14:30 CABLE ELECTRIC SIZE 25 SQMM COPPER   0.00 Single
740 HAPP 170326 03/03/2018 2018-03-22 14:00 2018-03-22 14:30 RADIAL TURNING REVERSE TOOL HOLDER   0.00 Single
741 OFT G680M96816 02/03/2018 2018-03-22 14:30 2018-03-22 15:00 THINNER FOR FINISH (CLEAR) MAK   0.00 Single
742 HEF TE17180303 01/03/2018 2018-03-21 00:00 2018-03-21 00:00 -H. CUP REF CIA/AMN/2158PT6044000114   49300.00 Single
743 OFK 17CST-0974 01/03/2018 2018-03-02 14:30 2018-03-02 13:00 BORON CARBIDE (B4C) SIZE-8-10 MM   0.00 Single
744 HVF 0204170139 01/03/2018 2018-03-07 12:00 2018-03-07 15:00 SHIM , etc.   0.00 Single
745 OFV 20170479 01/03/2018 2018-04-06 14:30 2018-04-06 15:00 FORK LIGHT BARRIER, 10 - 35 V DC,   0.00 Single
746 OFV 20170480 01/03/2018 2018-04-06 14:30 2018-04-06 15:00 SECURITY SWITCH ADAM M12,   0.00 Single
747 OFAJ FS2170120 01/03/2018 2018-04-02 14:00 2018-04-02 15:00 STRIKER SPRING DET-11   0.00 Single
748 OFAJ IS2170472 01/03/2018 2018-03-26 14:00 2018-03-26 15:00 GUN METAL 50MM DIAX2 TO 3MTR LONG, GUN METAL 80MM DIA, GUN METAL ROUND 125MM DIA, GUN METAL ROUND IS10742-1983,38 DIA, GUN METAL ROUND TO IS 10742 1985, GUN METAL ROUND TO IS 10742-1983, GUN METAL ROU   0.00 Single
749 OFAJ IS2170473 01/03/2018 2018-03-09 14:00 2018-03-09 15:00 SUPPLY OF FRP DEMARCATION STRIP   0.00 Single
750 OFAJ RS2170444 01/03/2018 2018-03-22 14:00 2018-03-22 15:00 DISMANTLING AND SHIFTING OF FUME EX   0.00 Single
751 OFAJ RS2170445 01/03/2018 2018-03-22 14:00 2018-03-22 15:00 BPTM BUSBAR PROTN TUBING 75/30-AU., BUSBAR PROTN TUBING BPTM 50/20-AU.   0.00 Single
752 OFAJ RS2170446 01/03/2018 2018-04-02 14:00 2018-04-02 15:00 THYRISTOR DRIVE 160AMPS   0.00 Single
753 OFAJ RS2170447 01/03/2018 2018-03-22 14:00 2018-03-22 15:00 CONTROL CABLE 14 X 0.14 SQ.MM., CONTROL CABLE 18 X 0.5 SQ. MM., CONTROL CABLE 36 X 0.34 SQ. MM., CONTROL CABLE.   0.00 Single
754 OFAJ TS2170281 01/03/2018 2018-03-23 14:00 2018-03-23 15:00 STEEL AISI/SAE-D2,SZ:250MM DIAX2-3M   0.00 Single
755 OFT G333A53593 01/03/2018 2018-03-22 14:30 2018-03-22 15:00 IS:4432-DES 17 Mn1 Cr95   0.00 Single
756 OFT G333A53594 01/03/2018 2018-03-22 14:30 2018-03-22 15:00 IS:4432 DES 17Mn1 Cr95   0.00 Single
757 OFT G333A53595 01/03/2018 2018-03-22 14:30 2018-03-22 15:00 STEEL MILD ROUND 70MM DIA C-20   0.00 Single
758 OFT G559E96815 01/03/2018 2018-03-27 14:30 2018-03-27 15:00 BASE BRACKET FORESIGHT(A1005)   0.00 Single
759 HAPP 170321 01/03/2018 2018-03-20 14:00 2018-03-20 14:30 SPRING FOR(VALUE BODY)RGB 60   0.00 Single